Latitude: N 50° 09' 49" Longitude: W 05° 11' 53" Elevation: 168m ASL

There are 8 visitors online

Adverts

<- Previous Day | Today | Next Day ->

All Data for 23 May 2018

Time
A - D
Temp
A - D
Dew Point
A - D
Humidity
A - D
Pressure
A - D
Wind
A - D
Wind Dir Gust
A - D
Rain Rate
A - D
Rain Total
00:00 12.5 9.3 81 1021.3 2.2 N 3.1 0.0 0.0
00:02 12.5 9.3 81 1021.3 2.2 N 3.1 0.0 0.0
00:04 12.5 9.3 81 1021.3 2.2 N 3.1 0.0 0.0
00:06 12.5 9.3 81 1021.4 3.1 N 3.1 0.0 0.0
00:07 12.5 9.3 81 1021.3 1.6 N 3.1 0.0 0.0
00:08 12.4 9.2 81 1021.3 2.2 N 3.1 0.0 0.0
00:10 12.4 9.2 81 1021.2 2.2 N 3.1 0.0 0.0
00:11 12.4 9.2 81 1021.3 3.1 N 3.1 0.0 0.0
00:12 12.4 9.2 81 1021.4 3.8 N 3.8 0.0 0.0
00:13 12.4 9.2 81 1021.2 3.1 N 3.8 0.0 0.0
00:14 12.4 9.2 81 1021.3 2.2 N 3.8 0.0 0.0
00:15 12.4 9.2 81 1021.4 3.1 N 3.8 0.0 0.0
00:16 12.4 9.2 81 1021.3 2.2 N 3.8 0.0 0.0
00:17 12.3 9.1 81 1021.4 2.2 N 3.8 0.0 0.0
00:18 12.4 9.2 81 1021.3 3.1 N 3.8 0.0 0.0
00:19 12.3 9.1 81 1021.2 2.2 N 3.8 0.0 0.0
00:20 12.3 9.1 81 1021.3 3.1 N 3.8 0.0 0.0
00:21 12.3 9.1 81 1021.3 3.1 N 3.8 0.0 0.0
00:22 12.3 9.1 81 1021.2 3.8 N 3.8 0.0 0.0
00:23 12.3 9.1 81 1021.3 3.1 N 3.8 0.0 0.0
00:25 12.3 9.1 81 1021.4 3.1 N 3.8 0.0 0.0
00:26 12.3 9.1 81 1021.4 2.2 N 3.8 0.0 0.0
00:27 12.3 9.1 81 1021.3 2.2 N 3.8 0.0 0.0
00:28 12.3 9.1 81 1021.4 3.1 N 3.8 0.0 0.0
00:29 12.3 9.1 81 1021.4 3.1 N 3.8 0.0 0.0
00:30 12.3 9.1 81 1021.3 3.1 N 3.8 0.0 0.0
00:31 12.3 9.1 81 1021.4 3.1 N 3.8 0.0 0.0
00:32 12.2 9.0 81 1021.3 3.1 N 3.8 0.0 0.0
00:33 12.2 9.0 81 1021.5 3.1 N 3.8 0.0 0.0
00:34 12.2 9.0 81 1021.3 2.2 N 3.8 0.0 0.0
00:35 12.2 9.2 82 1021.3 3.8 N 3.8 0.0 0.0
00:36 12.2 9.0 81 1021.4 3.1 NE 3.8 0.0 0.0
00:37 12.2 9.0 81 1021.4 3.8 NE 3.8 0.0 0.0
00:38 12.2 9.2 82 1021.4 3.8 NE 3.8 0.0 0.0
00:40 12.2 9.2 82 1021.4 3.1 NE 3.8 0.0 0.0
00:41 12.3 9.1 81 1021.5 3.1 NE 3.8 0.0 0.0
00:42 12.2 9.2 82 1021.4 3.1 NE 3.8 0.0 0.0
00:43 12.2 9.2 82 1021.4 2.2 NE 3.8 0.0 0.0
00:44 12.2 9.2 82 1021.3 2.2 NE 3.8 0.0 0.0
00:45 12.2 9.2 82 1021.4 3.1 NE 3.8 0.0 0.0
00:46 12.2 9.2 82 1021.3 3.8 NE 3.8 0.0 0.0
00:47 12.2 9.2 82 1021.3 2.2 NE 3.8 0.0 0.0
00:48 12.1 9.1 82 1021.4 3.1 NE 3.8 0.0 0.0
00:49 12.1 9.1 82 1021.4 3.8 NE 3.8 0.0 0.0
00:50 12.1 9.1 82 1021.4 2.2 NE 3.8 0.0 0.0
00:51 12.1 9.1 82 1021.4 2.2 NE 3.8 0.0 0.0
00:53 12.1 9.1 82 1021.4 1.6 NE 3.8 0.0 0.0
00:54 12.1 9.1 82 1021.4 2.2 NE 3.8 0.0 0.0
00:55 12.1 9.1 82 1021.3 0.7 NE 3.8 0.0 0.0
00:56 12.1 9.1 82 1021.3 1.6 NE 3.8 0.0 0.0
00:57 12.1 9.1 82 1021.4 1.6 NE 3.8 0.0 0.0
00:58 12.1 9.1 82 1021.3 2.2 NE 3.8 0.0 0.0
00:59 12.0 9.0 82 1021.4 3.1 NE 3.8 0.0 0.0
01:00 12.0 9.0 82 1021.3 3.1 NE 3.1 0.0 0.0
01:02 12.0 9.0 82 1021.2 3.1 NE 3.1 0.0 0.0
01:03 12.0 9.0 82 1021.3 3.1 NE 3.1 0.0 0.0
01:04 12.0 9.0 82 1021.2 3.1 NE 3.1 0.0 0.0
01:05 12.0 9.0 82 1021.2 3.1 NE 3.1 0.0 0.0
01:06 12.0 9.0 82 1021.3 3.1 NE 3.1 0.0 0.0
01:07 12.0 9.0 82 1021.4 3.1 NE 3.1 0.0 0.0
01:08 12.0 9.2 83 1021.3 2.2 NE 3.8 0.0 0.0
01:09 12.0 9.2 83 1021.3 2.2 NE 3.8 0.0 0.0
01:10 12.0 9.2 83 1021.3 1.6 NE 3.8 0.0 0.0
01:11 12.0 9.2 83 1021.4 3.1 NE 3.8 0.0 0.0
01:12 12.0 9.2 83 1021.3 1.6 NE 3.8 0.0 0.0
01:13 12.0 9.2 83 1021.2 2.2 NE 3.8 0.0 0.0
01:14 12.0 9.2 83 1021.3 2.2 NE 3.8 0.0 0.0
01:16 12.0 9.2 83 1021.4 2.2 NE 3.8 0.0 0.0
01:17 12.0 9.2 83 1021.4 2.2 NE 3.8 0.0 0.0
01:18 12.0 9.2 83 1021.5 2.2 NE 3.8 0.0 0.0
01:19 12.0 9.2 83 1021.5 2.2 NE 3.1 0.0 0.0
01:20 12.0 9.2 83 1021.4 3.1 NE 3.1 0.0 0.0
01:21 12.0 9.2 83 1021.5 2.2 NE 3.1 0.0 0.0
01:22 12.0 9.2 83 1021.4 3.1 NE 3.1 0.0 0.0
01:23 12.0 9.2 83 1021.4 2.2 NE 3.1 0.0 0.0
01:24 12.0 9.2 83 1021.3 2.2 NE 3.1 0.0 0.0
01:25 12.0 9.2 83 1021.4 2.2 NE 3.1 0.0 0.0
01:26 12.0 9.2 83 1021.4 2.2 NE 3.1 0.0 0.0
01:27 12.0 9.2 83 1021.5 3.1 NE 3.1 0.0 0.0
01:28 12.0 9.2 83 1021.4 3.1 NE 3.1 0.0 0.0
01:29 12.0 9.2 83 1021.5 2.2 NE 3.1 0.0 0.0
01:31 12.0 9.2 83 1021.6 2.2 NE 3.1 0.0 0.0
01:32 12.0 9.2 83 1021.4 2.2 NE 3.1 0.0 0.0
01:33 12.0 9.2 83 1021.6 3.1 NE 3.1 0.0 0.0
01:34 12.0 9.2 83 1021.5 2.2 NE 3.1 0.0 0.0
01:35 12.0 9.4 84 1021.5 2.2 NE 3.1 0.0 0.0
01:36 11.9 9.1 83 1021.4 2.2 NE 3.1 0.0 0.0
01:37 11.9 9.3 84 1021.4 2.2 NE 3.1 0.0 0.0
01:38 12.0 9.2 83 1021.5 2.2 NE 3.1 0.0 0.0
01:39 11.9 9.3 84 1021.5 3.1 NE 3.1 0.0 0.0
01:40 11.9 9.3 84 1021.5 3.1 NE 3.1 0.0 0.0
01:41 11.9 9.3 84 1021.3 2.2 NE 3.1 0.0 0.0
01:42 11.9 9.3 84 1021.5 3.1 NE 3.1 0.0 0.0
01:44 11.9 9.3 84 1021.5 2.2 NE 3.1 0.0 0.0
01:45 11.9 9.3 84 1021.5 3.8 NE 3.8 0.0 0.0
01:46 11.9 9.3 84 1021.5 3.1 NE 3.8 0.0 0.0
01:47 11.9 9.3 84 1021.7 3.1 NE 3.8 0.0 0.0
01:48 11.9 9.3 84 1021.4 2.2 NE 3.8 0.0 0.0
01:49 11.9 9.3 84 1021.5 2.2 NE 3.8 0.0 0.0
01:50 11.9 9.3 84 1021.3 3.1 NE 3.8 0.0 0.0
01:51 11.9 9.3 84 1021.5 2.2 NE 3.8 0.0 0.0
01:52 11.9 9.3 84 1021.5 3.8 NE 3.8 0.0 0.0
01:53 11.9 9.3 84 1021.4 3.1 NE 3.8 0.0 0.0
01:54 11.9 9.3 84 1021.6 2.2 NE 3.8 0.0 0.0
01:55 11.9 9.3 84 1021.5 2.2 NE 3.8 0.0 0.0
01:56 11.9 9.3 84 1021.5 3.1 NE 3.8 0.0 0.0
01:58 11.9 9.3 84 1021.5 1.6 NE 3.8 0.0 0.0
01:59 11.9 9.3 84 1021.4 2.2 NE 3.8 0.0 0.0
02:00 11.9 9.3 84 1021.4 2.2 NE 3.8 0.0 0.0
02:01 11.9 9.3 84 1021.4 2.2 NE 3.8 0.0 0.0
02:02 11.9 9.3 84 1021.5 2.2 NE 3.8 0.0 0.0
02:03 11.9 9.3 84 1021.5 2.2 NE 3.1 0.0 0.0
02:04 11.9 9.3 84 1021.5 2.2 NE 3.1 0.0 0.0
02:05 11.9 9.3 84 1021.4 3.8 N 3.8 0.0 0.0
02:06 11.8 9.2 84 1021.6 3.1 N 3.8 0.0 0.0
02:07 11.9 9.3 84 1021.5 1.6 N 3.8 0.0 0.0
02:09 11.9 9.3 84 1021.7 2.2 N 3.8 0.0 0.0
02:10 11.8 9.2 84 1021.6 3.8 N 3.8 0.0 0.0
02:11 11.8 9.2 84 1021.7 2.2 N 3.8 0.0 0.0
02:12 11.8 9.2 84 1021.6 3.1 N 3.8 0.0 0.0
02:13 11.8 9.2 84 1021.5 1.6 N 3.8 0.0 0.0
02:14 11.8 9.2 84 1021.6 2.2 N 3.8 0.0 0.0
02:15 11.9 9.3 84 1021.6 3.1 N 3.8 0.0 0.0
02:16 11.8 9.2 84 1021.6 2.2 N 3.8 0.0 0.0
02:18 11.8 9.2 84 1021.6 2.2 N 3.8 0.0 0.0
02:19 11.8 9.2 84 1021.6 3.1 N 3.8 0.0 0.0
02:20 11.8 9.2 84 1021.6 2.2 N 3.1 0.0 0.0
02:21 11.8 9.2 84 1021.6 2.2 N 3.1 0.0 0.0
02:22 11.8 9.2 84 1021.7 3.1 N 3.1 0.0 0.0
02:23 11.8 9.2 84 1021.5 3.1 N 3.1 0.0 0.0
02:24 11.8 9.2 84 1021.5 3.1 N 3.1 0.0 0.0
02:25 11.8 9.4 85 1021.6 3.1 N 3.1 0.0 0.0
02:26 11.8 9.2 84 1021.5 2.2 N 3.1 0.0 0.0
02:27 11.8 9.4 85 1021.6 4.5 NE 4.5 0.0 0.0
02:28 11.8 9.4 85 1021.5 1.6 NE 4.5 0.0 0.0
02:29 11.8 9.4 85 1021.5 3.8 NE 4.5 0.0 0.0
02:31 11.8 9.4 85 1021.6 3.8 NE 4.5 0.0 0.0
02:38 11.9 9.5 85 1021.5 2.2 NE 4.5 0.0 0.0
02:39 11.8 9.4 85 1021.4 3.1 NE 4.5 0.0 0.0
02:40 11.9 9.5 85 1021.4 2.2 NE 4.5 0.0 0.0
02:41 11.9 9.5 85 1021.5 1.6 NE 4.5 0.0 0.0
02:42 11.9 9.5 85 1021.4 3.1 NE 4.5 0.0 0.0
02:43 11.9 9.5 85 1021.5 2.2 NE 4.5 0.0 0.0
02:44 11.9 9.5 85 1021.5 2.2 NE 3.8 0.0 0.0
02:46 11.9 9.5 85 1021.5 3.1 NE 3.8 0.0 0.0
02:47 11.9 9.5 85 1021.3 2.2 NE 3.8 0.0 0.0
02:48 11.9 9.5 85 1021.3 3.1 NE 3.8 0.0 0.0
02:49 11.9 9.5 85 1021.3 3.1 NE 3.8 0.0 0.0
02:50 11.9 9.5 85 1021.3 3.1 NE 3.1 0.0 0.0
02:51 11.8 9.4 85 1021.3 2.2 NE 3.1 0.0 0.0
02:52 11.8 9.4 85 1021.5 3.1 NE 3.1 0.0 0.0
02:53 11.8 9.4 85 1021.3 2.2 NE 3.1 0.0 0.0
02:54 11.9 9.5 85 1021.4 2.2 NE 3.1 0.0 0.0
02:55 11.9 9.5 85 1021.3 2.2 NE 3.1 0.0 0.0
02:56 11.9 9.5 85 1021.4 3.1 NE 3.1 0.0 0.0
02:57 11.9 9.5 85 1021.3 3.1 NE 3.1 0.0 0.0
02:58 11.9 9.5 85 1021.4 2.2 NE 3.1 0.0 0.0
03:00 11.9 9.5 85 1021.3 2.2 NE 3.1 0.0 0.0
03:01 11.9 9.5 85 1021.6 1.6 NE 3.1 0.0 0.0
03:02 11.9 9.5 85 1021.4 1.6 NE 3.1 0.0 0.0
03:03 11.9 9.5 85 1021.4 1.6 NE 3.1 0.0 0.0
03:04 11.9 9.5 85 1021.4 1.6 NE 3.1 0.0 0.0
03:05 11.9 9.5 85 1021.5 1.6 NE 3.1 0.0 0.0
03:06 11.9 9.5 85 1021.3 2.2 NE 3.1 0.0 0.0
03:07 11.9 9.5 85 1021.3 3.1 NE 3.1 0.0 0.0
03:08 11.9 9.5 85 1021.3 1.6 NE 3.1 0.0 0.0
03:09 11.9 9.5 85 1021.3 1.6 NE 3.1 0.0 0.0
03:10 11.9 9.5 85 1021.5 1.6 NE 3.1 0.0 0.0
03:11 11.9 9.5 85 1021.3 2.2 NE 3.1 0.0 0.0
03:12 11.9 9.5 85 1021.4 2.2 NE 3.1 0.0 0.0
03:14 11.9 9.5 85 1021.3 1.6 NE 3.1 0.0 0.0
03:15 11.9 9.5 85 1021.2 2.2 NE 3.1 0.0 0.0
03:16 11.9 9.5 85 1021.2 2.2 NE 3.1 0.0 0.0
03:17 11.9 9.5 85 1021.2 2.2 NE 3.1 0.0 0.0
03:18 11.8 9.4 85 1021.2 2.2 NE 3.1 0.0 0.0
03:19 11.9 9.3 84 1021.1 2.2 NE 3.1 0.0 0.0
03:20 11.8 9.4 85 1021.3 3.1 NE 3.1 0.0 0.0
03:21 11.9 9.3 84 1021.2 2.2 NE 3.1 0.0 0.0
03:22 11.8 9.4 85 1021.3 2.2 NE 3.1 0.0 0.0
03:23 11.9 9.5 85 1021.3 2.2 NE 3.1 0.0 0.0
03:24 11.8 9.4 85 1021.3 2.2 NE 3.1 0.0 0.0
03:25 11.9 9.3 84 1021.2 1.6 NE 3.1 0.0 0.0
03:27 11.8 9.4 85 1021.3 2.2 NE 3.1 0.0 0.0
03:28 11.8 9.2 84 1021.3 2.2 NE 3.1 0.0 0.0
03:29 11.9 9.5 85 1021.3 2.2 NE 3.1 0.0 0.0
03:30 11.9 9.3 84 1021.2 2.2 NE 3.1 0.0 0.0
03:31 11.8 9.2 84 1021.3 2.2 NE 3.1 0.0 0.0
03:32 11.8 9.4 85 1021.2 2.2 NE 3.1 0.0 0.0
03:33 11.8 9.2 84 1021.1 1.6 NE 3.1 0.0 0.0
03:35 11.8 9.2 84 1021.3 2.2 NE 3.1 0.0 0.0
03:36 11.8 9.4 85 1021.2 2.2 NE 3.1 0.0 0.0
03:37 11.8 9.2 84 1021.3 2.2 NE 3.1 0.0 0.0
03:38 11.8 9.2 84 1021.3 3.1 NE 3.1 0.0 0.0
03:39 11.8 9.4 85 1021.3 2.2 NE 3.1 0.0 0.0
03:40 11.8 9.4 85 1021.3 2.2 NE 3.1 0.0 0.0
03:41 11.8 9.2 84 1021.2 2.2 NE 3.1 0.0 0.0
03:42 11.8 9.2 84 1021.3 3.1 NE 3.1 0.0 0.0
03:43 11.8 9.2 84 1021.3 2.2 NE 3.1 0.0 0.0
03:45 11.7 9.3 85 1021.3 2.2 NE 3.1 0.0 0.0
03:46 11.7 9.3 85 1021.2 2.2 NE 3.1 0.0 0.0
03:47 11.8 9.4 85 1021.3 2.2 NE 3.1 0.0 0.0
03:48 11.8 9.4 85 1021.2 2.2 NE 3.1 0.0 0.0
03:49 11.7 9.3 85 1021.2 3.1 NE 3.1 0.0 0.0
03:50 11.8 9.4 85 1021.4 2.2 NE 3.1 0.0 0.0
03:51 11.8 9.4 85 1021.2 2.2 NE 3.1 0.0 0.0
03:52 11.7 9.3 85 1021.2 2.2 NE 3.1 0.0 0.0
03:53 11.8 9.4 85 1021.2 2.2 NE 3.1 0.0 0.0
03:54 11.7 9.3 85 1021.2 2.2 NE 3.1 0.0 0.0
03:55 11.8 9.4 85 1021.3 2.2 NE 3.1 0.0 0.0
03:56 11.7 9.3 85 1021.3 2.2 NE 3.1 0.0 0.0
03:58 11.7 9.3 85 1021.3 2.2 NE 3.1 0.0 0.0
03:59 11.7 9.3 85 1021.2 2.2 NE 3.1 0.0 0.0
04:00 11.8 9.4 85 1021.1 2.2 NE 3.1 0.0 0.0
04:01 11.8 9.4 85 1021.3 2.2 NE 3.1 0.0 0.0
04:02 11.8 9.4 85 1021.3 2.2 NE 3.1 0.0 0.0
04:03 11.8 9.4 85 1021.3 2.2 NE 3.1 0.0 0.0
04:04 11.8 9.4 85 1021.2 2.2 NE 3.1 0.0 0.0
04:05 11.8 9.4 85 1021.3 2.2 NE 3.1 0.0 0.0
04:06 11.8 9.4 85 1021.3 3.1 NE 3.1 0.0 0.0
04:07 11.8 9.4 85 1021.1 3.1 NE 3.1 0.0 0.0
04:09 11.8 9.4 85 1021.3 2.2 NE 3.1 0.0 0.0
04:10 11.8 9.4 85 1021.4 2.2 NE 3.1 0.0 0.0
04:12 11.8 9.4 85 1021.2 2.2 NE 3.1 0.0 0.0
04:13 11.8 9.4 85 1021.3 2.2 NE 3.1 0.0 0.0
04:14 11.8 9.4 85 1021.3 2.2 NE 3.1 0.0 0.0
04:15 11.8 9.4 85 1021.3 3.1 NE 3.1 0.0 0.0
04:16 11.8 9.4 85 1021.3 2.2 NE 3.1 0.0 0.0
04:17 11.8 9.4 85 1021.3 2.2 NE 3.1 0.0 0.0
04:18 11.8 9.4 85 1021.4 2.2 NE 3.1 0.0 0.0
04:19 11.8 9.4 85 1021.3 3.1 NE 3.1 0.0 0.0
04:20 11.8 9.4 85 1021.3 3.1 NE 3.1 0.0 0.0
04:21 11.9 9.5 85 1021.5 3.8 NE 3.8 0.0 0.0
04:22 11.9 9.5 85 1021.4 3.1 NE 3.8 0.0 0.0
04:23 11.9 9.5 85 1021.3 2.2 NE 3.8 0.0 0.0
04:25 11.9 9.5 85 1021.4 3.8 NE 3.8 0.0 0.0
04:26 11.9 9.5 85 1021.3 3.1 NE 3.8 0.0 0.0
04:27 11.9 9.5 85 1021.3 2.2 NE 3.8 0.0 0.0
04:28 11.9 9.5 85 1021.4 2.2 NE 3.8 0.0 0.0
04:29 12.0 9.6 85 1021.6 3.1 NE 3.8 0.0 0.0
04:30 12.0 9.6 85 1021.4 2.2 NE 3.8 0.0 0.0
04:31 12.0 9.6 85 1021.4 2.2 NE 3.8 0.0 0.0
04:32 12.0 9.6 85 1021.3 2.2 NE 3.8 0.0 0.0
04:33 12.0 9.6 85 1021.5 2.2 NE 3.8 0.0 0.0
04:34 12.0 9.6 85 1021.4 2.2 NE 3.8 0.0 0.0
04:35 12.1 9.7 85 1021.4 2.2 NE 3.1 0.0 0.0
04:36 12.1 9.7 85 1021.5 2.2 NE 3.1 0.0 0.0
04:37 12.1 9.7 85 1021.4 2.2 NE 3.1 0.0 0.0
04:38 12.1 9.7 85 1021.3 3.1 NE 3.1 0.0 0.0
04:39 12.1 9.7 85 1021.5 3.1 NE 3.1 0.0 0.0
04:40 12.1 9.7 85 1021.5 2.2 NE 3.1 0.0 0.0
04:41 12.1 9.7 85 1021.4 2.2 NE 3.1 0.0 0.0
04:42 12.2 9.8 85 1021.4 2.2 NE 3.1 0.0 0.0
04:43 12.2 9.8 85 1021.4 2.2 NE 3.1 0.0 0.0
04:44 12.1 9.7 85 1021.4 2.2 NE 3.1 0.0 0.0
04:45 12.1 9.7 85 1021.3 2.2 NE 3.1 0.0 0.0
04:46 12.2 9.8 85 1021.4 2.2 NE 3.1 0.0 0.0
04:47 12.2 9.8 85 1021.4 3.1 NE 3.1 0.0 0.0
04:48 12.2 9.8 85 1021.3 2.2 NE 3.1 0.0 0.0
04:49 12.2 9.8 85 1021.4 3.1 NE 3.1 0.0 0.0
04:50 12.2 9.8 85 1021.3 3.1 N 3.1 0.0 0.0
04:52 12.2 9.8 85 1021.3 3.1 N 3.1 0.0 0.0
04:53 12.2 9.8 85 1021.3 3.8 N 3.8 0.0 0.0
04:54 12.2 9.8 85 1021.4 3.1 N 3.8 0.0 0.0
04:55 12.2 9.6 84 1021.4 2.2 N 3.8 0.0 0.0
04:56 12.2 9.6 84 1021.4 3.1 N 3.8 0.0 0.0
04:57 12.2 9.6 84 1021.4 2.2 N 3.8 0.0 0.0
04:58 12.2 9.6 84 1021.3 3.1 N 3.8 0.0 0.0
04:59 12.2 9.6 84 1021.4 3.1 N 3.8 0.0 0.0
05:00 12.2 9.6 84 1021.4 3.1 N 3.8 0.0 0.0
05:01 12.2 9.6 84 1021.5 2.2 N 3.8 0.0 0.0
05:02 12.2 9.6 84 1021.4 3.1 N 3.8 0.0 0.0
05:03 12.2 9.6 84 1021.3 2.2 N 3.8 0.0 0.0
05:04 12.2 9.6 84 1021.4 3.1 N 3.1 0.0 0.0
05:05 12.2 9.6 84 1021.5 3.1 N 3.1 0.0 0.0
05:06 12.2 9.6 84 1021.4 3.1 N 3.1 0.0 0.0
05:07 12.2 9.6 84 1021.3 2.2 N 3.1 0.0 0.0
05:08 12.2 9.6 84 1021.4 2.2 N 3.1 0.0 0.0
05:09 12.2 9.6 84 1021.5 3.1 N 3.1 0.0 0.0
05:10 12.2 9.6 84 1021.5 2.2 N 3.1 0.0 0.0
05:11 12.2 9.6 84 1021.5 3.1 N 3.1 0.0 0.0
05:12 12.2 9.6 84 1021.3 2.2 N 3.1 0.0 0.0
05:13 12.2 9.6 84 1021.4 3.1 NE 3.1 0.0 0.0
05:14 12.2 9.6 84 1021.3 3.1 NE 3.1 0.0 0.0
05:15 12.2 9.6 84 1021.4 3.1 NE 3.1 0.0 0.0
05:16 12.2 9.6 84 1021.4 3.1 NE 3.1 0.0 0.0
05:17 12.2 9.6 84 1021.5 2.2 NE 3.1 0.0 0.0
05:18 12.2 9.6 84 1021.6 3.1 NE 3.1 0.0 0.0
05:19 12.2 9.6 84 1021.5 3.1 NE 3.1 0.0 0.0
05:20 12.2 9.6 84 1021.5 2.2 NE 3.1 0.0 0.0
05:21 12.2 9.6 84 1021.5 3.1 NE 3.1 0.0 0.0
05:22 12.2 9.6 84 1021.5 2.2 NE 3.1 0.0 0.0
05:23 12.2 9.6 84 1021.6 1.6 NE 3.1 0.0 0.0
05:24 12.2 9.6 84 1021.5 2.2 NE 3.1 0.0 0.0
05:25 12.2 9.6 84 1021.7 2.2 NE 3.1 0.0 0.0
05:26 12.2 9.6 84 1021.6 2.2 NE 3.1 0.0 0.0
05:27 12.2 9.6 84 1021.6 2.2 NE 3.1 0.0 0.0
05:28 12.2 9.6 84 1021.6 2.2 NE 3.1 0.0 0.0
05:29 12.2 9.6 84 1021.5 2.2 NE 3.1 0.0 0.0
05:30 12.2 9.6 84 1021.6 2.2 NE 3.1 0.0 0.0
05:31 12.2 9.6 84 1021.5 2.2 NE 3.1 0.0 0.0
05:32 12.2 9.6 84 1021.7 1.6 NE 2.2 0.0 0.0
05:33 12.2 9.6 84 1021.6 3.1 NE 3.1 0.0 0.0
05:34 12.2 9.6 84 1021.6 2.2 NE 3.1 0.0 0.0
05:35 12.2 9.6 84 1021.5 2.2 NE 3.1 0.0 0.0
05:36 12.2 9.6 84 1021.6 2.2 NE 3.1 0.0 0.0
05:37 12.2 9.6 84 1021.6 2.2 NE 3.1 0.0 0.0
05:38 12.2 9.6 84 1021.6 2.2 NE 3.1 0.0 0.0
05:39 12.2 9.6 84 1021.5 2.2 NE 3.1 0.0 0.0
05:40 12.2 9.6 84 1021.7 2.2 NE 3.1 0.0 0.0
05:41 12.2 9.6 84 1021.6 1.6 NE 3.1 0.0 0.0
05:42 12.2 9.6 84 1021.6 2.2 NE 3.1 0.0 0.0
05:43 12.2 9.6 84 1021.7 2.2 NE 3.1 0.0 0.0
05:44 12.2 9.6 84 1021.8 2.2 NE 2.2 0.0 0.0
05:45 12.2 9.6 84 1021.6 2.2 NE 2.2 0.0 0.0
05:46 12.2 9.6 84 1021.6 2.2 NE 2.2 0.0 0.0
05:47 12.2 9.6 84 1021.5 2.2 NE 2.2 0.0 0.0
05:49 12.1 9.5 84 1021.6 2.2 NE 2.2 0.0 0.0
05:50 12.1 9.5 84 1021.6 2.2 NE 2.2 0.0 0.0
05:51 12.1 9.5 84 1021.6 2.2 NE 2.2 0.0 0.0
05:52 12.1 9.5 84 1021.6 2.2 NE 2.2 0.0 0.0
05:53 12.1 9.5 84 1021.7 2.2 NE 2.2 0.0 0.0
05:54 12.1 9.5 84 1021.7 3.1 NE 3.1 0.0 0.0
05:55 12.1 9.5 84 1021.7 2.2 NE 3.1 0.0 0.0
05:56 12.1 9.5 84 1021.8 3.1 NE 3.1 0.0 0.0
05:57 12.1 9.5 84 1021.8 3.1 NE 3.1 0.0 0.0
05:58 12.1 9.5 84 1021.8 3.1 NE 3.1 0.0 0.0
05:59 12.1 9.5 84 1021.8 3.1 NE 3.1 0.0 0.0
06:00 12.1 9.5 84 1021.8 3.8 NE 3.8 0.0 0.0
06:01 12.1 9.5 84 1021.7 3.1 NE 3.8 0.0 0.0
06:02 12.1 9.5 84 1021.7 3.1 NE 3.8 0.0 0.0
06:03 12.1 9.5 84 1021.7 3.1 NE 3.8 0.0 0.0
06:04 12.1 9.5 84 1021.8 3.1 NE 3.8 0.0 0.0
06:05 12.1 9.5 84 1021.8 3.1 NE 3.8 0.0 0.0
06:06 12.1 9.5 84 1021.9 2.2 NE 3.8 0.0 0.0
06:07 12.1 9.5 84 1021.9 2.2 NE 3.8 0.0 0.0
06:08 12.1 9.5 84 1021.8 2.2 NE 3.8 0.0 0.0
06:10 12.1 9.5 84 1021.9 1.6 NE 3.1 0.0 0.0
06:11 12.1 9.5 84 1022.0 2.2 NE 3.1 0.0 0.0
06:13 12.1 9.5 84 1021.9 2.2 NE 3.1 0.0 0.0
06:14 12.1 9.5 84 1022.0 2.2 NE 3.1 0.0 0.0
06:15 12.1 9.5 84 1021.9 2.2 NE 3.1 0.0 0.0
06:16 12.1 9.5 84 1022.0 2.2 NE 2.2 0.0 0.0
06:17 12.2 9.6 84 1021.9 2.2 NE 2.2 0.0 0.0
06:18 12.2 9.6 84 1021.9 2.2 NE 2.2 0.0 0.0
06:19 12.1 9.5 84 1022.0 2.2 NE 2.2 0.0 0.0
06:20 12.1 9.5 84 1021.9 1.6 NE 2.2 0.0 0.0
06:21 12.1 9.5 84 1021.8 2.2 NE 2.2 0.0 0.0
06:22 12.2 9.6 84 1021.9 3.1 NE 3.1 0.0 0.0
06:23 12.1 9.5 84 1022.0 2.2 NE 3.1 0.0 0.0
06:24 12.1 9.5 84 1021.9 2.2 NE 3.1 0.0 0.0
06:25 12.2 9.6 84 1021.9 2.2 NE 3.1 0.0 0.0
06:26 12.1 9.5 84 1021.9 2.2 NE 3.1 0.0 0.0
06:27 12.2 9.6 84 1022.0 3.1 NE 3.1 0.0 0.0
06:28 12.2 9.6 84 1022.1 3.1 NE 3.1 0.0 0.0
06:29 12.2 9.6 84 1021.9 2.2 NE 3.1 0.0 0.0
06:30 12.2 9.6 84 1022.0 3.1 NE 3.1 0.0 0.0
06:31 12.2 9.6 84 1021.9 3.1 NE 3.1 0.0 0.0
06:32 12.2 9.6 84 1022.1 2.2 NE 3.1 0.0 0.0
06:33 12.2 9.8 85 1022.0 2.2 NE 3.1 0.0 0.0
06:34 12.2 9.8 85 1022.1 2.2 NE 3.1 0.0 0.0
06:35 12.2 9.6 84 1021.9 1.6 NE 3.1 0.0 0.0
06:36 12.2 9.8 85 1022.0 2.2 NE 3.1 0.0 0.0
06:37 12.2 9.8 85 1022.0 2.2 NE 3.1 0.0 0.0
06:38 12.2 9.8 85 1022.0 2.2 NE 3.1 0.0 0.0
06:39 12.2 9.8 85 1022.1 2.2 NE 3.1 0.0 0.0
06:40 12.3 9.9 85 1022.1 2.2 NE 3.1 0.0 0.0
06:41 12.3 9.9 85 1022.2 1.6 NE 3.1 0.0 0.0
06:42 12.3 9.9 85 1022.1 2.2 NE 2.2 0.0 0.0
06:44 12.3 9.9 85 1022.1 2.2 NE 2.2 0.0 0.0
06:45 12.4 10.0 85 1022.2 1.6 NE 2.2 0.0 0.0
06:46 12.4 10.0 85 1022.1 2.2 NE 2.2 0.0 0.0
06:47 12.4 10.0 85 1022.2 2.2 NE 2.2 0.0 0.0
06:48 12.4 10.0 85 1022.2 2.2 NE 2.2 0.0 0.0
06:49 12.5 10.1 85 1022.1 2.2 NE 2.2 0.0 0.0
06:50 12.5 10.1 85 1022.2 2.2 NE 2.2 0.0 0.0
06:51 12.5 10.1 85 1022.2 2.2 NE 2.2 0.0 0.0
06:52 12.5 10.1 85 1022.2 2.2 NE 2.2 0.0 0.0
06:53 12.5 10.1 85 1022.2 3.1 NE 3.1 0.0 0.0
06:54 12.6 10.1 85 1022.3 2.2 NE 3.1 0.0 0.0
06:55 12.6 10.1 85 1022.3 2.2 NE 3.1 0.0 0.0
06:56 12.6 10.1 85 1022.3 2.2 NE 3.1 0.0 0.0
06:57 12.6 10.1 85 1022.3 2.2 NE 3.1 0.0 0.0
06:58 12.7 10.2 85 1022.2 2.2 NE 3.1 0.0 0.0
06:59 12.7 10.2 85 1022.3 3.1 NE 3.1 0.0 0.0
07:00 12.7 10.2 85 1022.4 3.1 NE 3.1 0.0 0.0
07:01 12.7 10.2 85 1022.2 2.2 NE 3.1 0.0 0.0
07:02 12.7 10.2 85 1022.3 2.2 NE 3.1 0.0 0.0
07:04 12.8 10.3 85 1022.3 3.1 NE 3.1 0.0 0.0
07:05 12.8 10.3 85 1022.3 2.2 NE 3.1 0.0 0.0
07:06 12.8 10.3 85 1022.3 2.2 NE 3.1 0.0 0.0
07:07 12.8 10.3 85 1022.2 2.2 NE 3.1 0.0 0.0
07:08 12.8 10.3 85 1022.3 2.2 NE 3.1 0.0 0.0
07:09 12.8 10.3 85 1022.3 3.1 NE 3.1 0.0 0.0
07:10 12.9 10.4 85 1022.2 1.6 NE 3.1 0.0 0.0
07:11 12.9 10.4 85 1022.2 2.2 NE 3.1 0.0 0.0
07:12 12.9 10.4 85 1022.2 0.7 NE 3.1 0.0 0.0
07:13 12.9 10.4 85 1022.3 1.6 NE 3.1 0.0 0.0
07:14 12.9 10.4 85 1022.4 1.6 NE 3.1 0.0 0.0
07:15 13.0 10.5 85 1022.4 2.2 NE 3.1 0.0 0.0
07:16 13.0 10.5 85 1022.4 2.2 NE 3.1 0.0 0.0
07:17 13.0 10.5 85 1022.4 0.7 NE 3.1 0.0 0.0
07:18 13.0 10.5 85 1022.3 1.6 NE 3.1 0.0 0.0
07:19 13.0 10.5 85 1022.3 2.2 NE 2.2 0.0 0.0
07:20 13.0 10.5 85 1022.3 1.6 NE 2.2 0.0 0.0
07:21 13.1 10.6 85 1022.5 2.2 NE 2.2 0.0 0.0
07:22 13.1 10.6 85 1022.4 3.1 NE 3.1 0.0 0.0
07:24 13.1 10.6 85 1022.5 3.8 NE 3.8 0.0 0.0
07:25 13.2 10.7 85 1022.3 3.1 NE 3.8 0.0 0.0
07:26 13.2 10.7 85 1022.4 2.2 NE 3.8 0.0 0.0
07:27 13.2 10.7 85 1022.4 1.6 NE 3.8 0.0 0.0
07:28 13.3 10.8 85 1022.4 2.2 NE 3.8 0.0 0.0
07:29 13.3 10.8 85 1022.4 1.6 NE 3.8 0.0 0.0
07:30 13.3 10.8 85 1022.4 2.2 NE 3.8 0.0 0.0
07:31 13.4 10.9 85 1022.4 3.8 NE 3.8 0.0 0.0
07:32 13.4 10.9 85 1022.5 3.1 NE 3.8 0.0 0.0
07:33 13.4 10.9 85 1022.5 2.2 NE 3.8 0.0 0.0
07:34 13.5 11.0 85 1022.5 2.2 NE 3.8 0.0 0.0
07:35 13.5 11.0 85 1022.4 3.8 NE 3.8 0.0 0.0
07:36 13.5 11.0 85 1022.4 3.1 NE 3.8 0.0 0.0
07:37 13.5 11.0 85 1022.3 1.6 NE 3.8 0.0 0.0
07:38 13.6 11.1 85 1022.3 1.6 NE 3.8 0.0 0.0
07:40 13.6 11.0 84 1022.4 3.1 NE 3.8 0.0 0.0
07:41 13.7 11.1 84 1022.3 2.2 NE 3.8 0.0 0.0
07:42 13.7 11.1 84 1022.4 1.6 NE 3.8 0.0 0.0
07:43 13.7 11.1 84 1022.5 2.2 NE 3.8 0.0 0.0
07:44 13.7 11.1 84 1022.4 2.2 NE 3.8 0.0 0.0
07:45 13.8 11.1 84 1022.4 0.7 NE 3.8 0.0 0.0
07:46 13.8 11.1 84 1022.3 2.2 NE 3.1 0.0 0.0
07:47 13.9 11.2 84 1022.5 2.2 NE 3.1 0.0 0.0
07:48 13.9 11.2 84 1022.5 3.8 NE 3.8 0.0 0.0
07:49 13.9 11.2 84 1022.5 5.4 NE 5.4 0.0 0.0
07:50 14.0 11.3 84 1022.5 3.8 NE 5.4 0.0 0.0
07:51 14.0 11.3 84 1022.4 5.4 NE 5.4 0.0 0.0
07:52 14.0 11.3 84 1022.6 3.8 NE 5.4 0.0 0.0
07:53 14.1 11.4 84 1022.6 3.1 NE 5.4 0.0 0.0
07:54 14.1 11.4 84 1022.4 3.8 NE 5.4 0.0 0.0
07:55 14.2 11.5 84 1022.5 2.2 NE 5.4 0.0 0.0
07:57 14.3 11.5 83 1022.5 3.1 NE 5.4 0.0 0.0
07:58 14.3 11.5 83 1022.5 3.8 NE 5.4 0.0 0.0
07:59 14.3 11.5 83 1022.6 3.8 NE 5.4 0.0 0.0
08:00 14.4 11.6 83 1022.6 2.2 NE 5.4 0.0 0.0
08:01 14.4 11.6 83 1022.4 2.2 NE 5.4 0.0 0.0
08:02 14.5 11.7 83 1022.4 3.1 NE 3.8 0.0 0.0
08:03 14.5 11.7 83 1022.5 3.8 NE 3.8 0.0 0.0
08:04 14.5 11.7 83 1022.5 6.0 NE 6.0 0.0 0.0
08:05 14.6 11.8 83 1022.5 5.4 NE 6.0 0.0 0.0
08:06 14.6 11.6 82 1022.5 5.4 NE 6.0 0.0 0.0
08:07 14.6 11.6 82 1022.5 2.2 NE 6.0 0.0 0.0
08:08 14.7 11.7 82 1022.5 3.1 NE 6.0 0.0 0.0
08:10 14.7 11.7 82 1022.4 6.0 NE 6.0 0.0 0.0
08:11 14.7 11.7 82 1022.5 3.1 NE 6.0 0.0 0.0
08:13 14.8 11.6 81 1022.6 3.1 NE 6.0 0.0 0.0
08:14 14.8 11.6 81 1022.6 3.8 NE 6.0 0.0 0.0
08:15 14.8 11.6 81 1022.5 6.0 NE 6.0 0.0 0.0
08:16 14.8 11.6 81 1022.5 3.1 NE 6.0 0.0 0.0
08:17 14.8 11.6 81 1022.6 3.1 NE 6.0 0.0 0.0
08:18 14.9 11.5 80 1022.5 3.8 NE 6.0 0.0 0.0
08:19 14.9 11.5 80 1022.5 4.5 NE 6.0 0.0 0.0
08:20 14.9 11.5 80 1022.6 5.4 NE 6.0 0.0 0.0
08:21 15.0 11.6 80 1022.5 3.8 N 6.0 0.0 0.0
08:22 15.0 11.6 80 1022.5 2.2 N 6.0 0.0 0.0
08:23 15.0 11.6 80 1022.6 2.2 N 6.0 0.0 0.0
08:25 15.0 11.6 80 1022.5 6.0 NE 6.9 0.0 0.0
08:26 15.0 11.4 79 1022.5 3.1 NE 6.9 0.0 0.0
08:27 15.1 11.5 79 1022.5 4.5 NE 6.9 0.0 0.0
08:28 15.1 11.5 79 1022.5 4.5 NE 6.9 0.0 0.0
08:29 15.1 11.5 79 1022.4 1.6 NE 6.9 0.0 0.0
08:30 15.1 11.5 79 1022.5 3.8 NE 6.9 0.0 0.0
08:31 15.1 11.5 79 1022.5 2.2 NE 6.9 0.0 0.0
08:32 15.2 11.6 79 1022.6 1.6 NE 6.9 0.0 0.0
08:33 15.2 11.4 78 1022.5 2.2 NE 6.9 0.0 0.0
08:34 15.2 11.4 78 1022.6 3.8 NE 6.0 0.0 0.0
08:35 15.2 11.4 78 1022.5 6.0 NE 6.0 0.0 0.0
08:36 15.2 11.4 78 1022.6 3.1 NE 6.0 0.0 0.0
08:37 15.2 11.4 78 1022.6 3.8 NE 6.0 0.0 0.0
08:38 15.3 11.5 78 1022.6 4.5 E 6.0 0.0 0.0
08:39 15.3 11.5 78 1022.6 4.5 NE 6.0 0.0 0.0
08:41 15.3 11.3 77 1022.6 3.1 NE 6.0 0.0 0.0
08:42 15.3 11.3 77 1022.6 3.8 NE 6.0 0.0 0.0
08:43 15.3 11.3 77 1022.5 3.8 NE 6.0 0.0 0.0
08:44 15.4 11.4 77 1022.7 5.4 NE 6.0 0.0 0.0
08:45 15.4 11.4 77 1022.6 3.1 NE 6.0 0.0 0.0
08:46 15.4 11.4 77 1022.6 3.8 NE 6.0 0.0 0.0
08:47 15.4 11.4 77 1022.7 3.8 NE 6.0 0.0 0.0
08:48 15.4 11.4 77 1022.6 3.8 NE 5.4 0.0 0.0
08:49 15.5 11.5 77 1022.6 3.8 NE 5.4 0.0 0.0
08:50 15.5 11.3 76 1022.6 2.2 NE 5.4 0.0 0.0
08:51 15.5 11.3 76 1022.6 1.6 NE 5.4 0.0 0.0
08:52 15.5 11.5 77 1022.8 2.2 NE 5.4 0.0 0.0
08:53 15.6 11.4 76 1022.6 2.2 NE 5.4 0.0 0.0
08:54 15.6 11.4 76 1022.6 3.1 NE 3.8 0.0 0.0
08:55 15.6 11.4 76 1022.5 3.1 NE 3.8 0.0 0.0
08:57 15.7 11.5 76 1022.6 3.1 NE 3.8 0.0 0.0
08:58 15.7 11.5 76 1022.5 3.1 NE 3.8 0.0 0.0
08:59 15.7 11.5 76 1022.6 3.1 NE 3.8 0.0 0.0
09:00 15.7 11.5 76 1022.6 3.1 NE 3.8 0.0 0.0
09:01 15.8 11.6 76 1022.7 2.2 NE 3.1 0.0 0.0
09:02 15.8 11.6 76 1022.6 2.2 NE 3.1 0.0 0.0
09:03 15.8 11.6 76 1022.7 2.2 NE 3.1 0.0 0.0
09:04 15.8 11.6 76 1022.8 2.2 NE 3.1 0.0 0.0
09:05 16.0 11.6 75 1022.8 3.1 NE 3.1 0.0 0.0
09:06 16.0 11.6 75 1022.6 3.1 NE 3.1 0.0 0.0
09:08 16.1 11.7 75 1022.8 2.2 NE 3.1 0.0 0.0
09:09 16.2 11.8 75 1022.7 3.1 NE 3.1 0.0 0.0
09:10 16.2 11.8 75 1022.7 3.8 NE 3.8 0.0 0.0
09:11 16.2 11.8 75 1022.7 2.2 NE 3.8 0.0 0.0
09:12 16.3 11.7 74 1022.6 3.1 NE 3.8 0.0 0.0
09:13 16.4 11.8 74 1022.7 3.8 NE 3.8 0.0 0.0
09:14 16.4 11.8 74 1022.7 3.1 NE 3.8 0.0 0.0
09:15 16.5 11.9 74 1022.8 3.1 NE 3.8 0.0 0.0
09:16 16.6 12.0 74 1022.8 2.2 NE 3.8 0.0 0.0
09:17 16.7 11.8 73 1022.7 3.1 NE 3.8 0.0 0.0
09:18 16.7 11.8 73 1022.7 3.1 NE 3.8 0.0 0.0
09:19 16.8 11.9 73 1022.8 2.2 NE 3.8 0.0 0.0
09:20 16.8 11.9 73 1022.8 2.2 NE 3.8 0.0 0.0
09:21 16.9 11.8 72 1022.8 1.6 NE 3.8 0.0 0.0
09:23 17.0 11.9 72 1022.8 2.2 NE 3.1 0.0 0.0
09:25 17.1 12.0 72 1022.7 1.6 NE 3.1 0.0 0.0
09:27 17.2 12.1 72 1022.7 3.1 NE 3.1 0.0 0.0
09:28 17.3 12.0 71 1022.8 3.8 NE 3.8 0.0 0.0
09:30 17.4 12.1 71 1022.8 4.5 NE 4.5 0.0 0.0
09:31 17.4 11.9 70 1022.8 5.4 NE 6.0 0.0 0.0
09:32 17.5 12.0 70 1022.6 3.1 NE 6.0 0.0 0.0
09:33 17.5 12.0 70 1022.7 2.2 NE 6.0 0.0 0.0
09:34 17.6 12.1 70 1022.6 3.1 NE 6.0 0.0 0.0
09:35 17.6 12.1 70 1022.9 4.5 N 6.0 0.0 0.0
09:36 17.7 12.2 70 1022.7 2.2 N 6.0 0.0 0.0
09:37 17.7 12.2 70 1022.7 0.7 N 6.0 0.0 0.0
09:39 17.7 11.9 69 1022.8 1.6 N 6.0 0.0 0.0
09:40 17.8 11.8 68 1022.9 4.5 NE 6.0 0.0 0.0
09:41 17.8 11.8 68 1022.7 2.2 NE 5.4 0.0 0.0
09:42 17.8 11.6 67 1022.7 3.8 NE 4.5 0.0 0.0
09:43 17.8 11.6 67 1022.8 4.5 NE 4.5 0.0 0.0
09:44 17.9 11.7 67 1022.7 3.8 NE 4.5 0.0 0.0
09:45 17.9 11.7 67 1022.8 2.2 NE 4.5 0.0 0.0
09:46 18.0 11.8 67 1022.7 2.2 NE 4.5 0.0 0.0
09:47 18.0 11.8 67 1022.9 3.8 NE 4.5 0.0 0.0
09:48 18.1 11.7 66 1022.7 5.4 NE 5.4 0.0 0.0
09:49 18.1 11.7 66 1022.8 3.1 NE 5.4 0.0 0.0
09:50 18.2 11.8 66 1022.8 3.1 NE 5.4 0.0 0.0
09:51 18.2 11.8 66 1022.8 3.8 NE 5.4 0.0 0.0
09:52 18.2 11.8 66 1022.8 2.2 NE 5.4 0.0 0.0
09:53 18.3 11.8 66 1022.8 2.2 NE 5.4 0.0 0.0
09:54 18.3 11.8 66 1022.8 1.6 NE 5.4 0.0 0.0
09:56 18.4 11.7 65 1022.7 1.6 NE 5.4 0.0 0.0
09:57 18.4 11.7 65 1022.9 5.4 NE 5.4 0.0 0.0
09:58 18.5 11.8 65 1022.8 4.5 NE 5.4 0.0 0.0
09:59 18.5 11.6 64 1023.0 3.1 NE 5.4 0.0 0.0
10:00 18.5 11.8 65 1022.8 3.1 NE 5.4 0.0 0.0
10:01 18.5 11.8 65 1022.8 3.1 NE 5.4 0.0 0.0
10:02 18.5 11.8 65 1022.8 3.1 NE 5.4 0.0 0.0
10:03 18.5 11.8 65 1022.8 3.1 NE 5.4 0.0 0.0
10:04 18.5 11.8 65 1022.8 3.1 NE 5.4 0.0 0.0
10:05 18.8 11.9 64 1022.9 5.4 NE 5.4 0.0 0.0
10:06 18.9 12.0 64 1022.8 3.8 NE 5.4 0.0 0.0
10:07 18.9 11.7 63 1022.9 4.5 NE 5.4 0.0 0.0
10:08 18.9 11.7 63 1022.8 3.8 NE 5.4 0.0 0.0
10:10 19.0 11.8 63 1022.8 6.9 NE 6.9 0.0 0.0
10:11 19.1 11.7 62 1022.9 5.4 NE 6.9 0.0 0.0
10:13 19.1 11.4 61 1022.8 3.8 NE 6.9 0.0 0.0
10:14 19.1 11.7 62 1023.1 3.1 NE 6.9 0.0 0.0
10:15 19.1 11.4 61 1023.0 7.6 NE 7.6 0.0 0.0
10:16 19.1 11.9 63 1023.0 3.8 N 8.3 0.0 0.0
10:17 19.1 11.7 62 1023.1 6.0 NE 8.3 0.0 0.0
10:18 19.2 11.8 62 1023.0 3.8 NE 8.3 0.0 0.0
10:19 19.1 11.7 62 1023.0 6.0 NE 8.3 0.0 0.0
10:21 19.2 11.8 62 1022.9 6.0 NE 8.3 0.0 0.0
10:22 19.2 11.8 62 1023.1 6.9 NE 8.3 0.0 0.0
10:23 19.2 12.0 63 1022.9 3.1 NE 8.3 0.0 0.0
10:24 19.3 12.3 64 1022.9 3.1 NE 8.3 0.0 0.0
10:25 19.3 12.1 63 1023.0 3.1 SE 8.3 0.0 0.0
10:26 19.3 12.1 63 1023.0 3.1 E 8.3 0.0 0.0
10:27 19.3 11.8 62 1023.0 3.1 E 6.9 0.0 0.0
10:28 19.3 11.8 62 1022.9 4.5 N 6.9 0.0 0.0
10:29 19.3 11.8 62 1023.0 3.1 N 6.9 0.0 0.0
10:30 19.3 11.8 62 1022.8 3.1 N 6.9 0.0 0.0
10:31 19.3 11.8 62 1022.9 4.5 NE 6.9 0.0 0.0
10:32 19.4 11.9 62 1022.9 4.5 NE 5.4 0.0 0.0
10:33 19.4 11.9 62 1023.0 4.5 NE 5.4 0.0 0.0
10:34 19.5 12.3 63 1023.0 3.8 NE 5.4 0.0 0.0
10:35 19.5 12.5 64 1023.0 5.4 NE 5.4 0.0 0.0
10:37 19.6 12.4 63 1022.9 1.6 NE 5.4 0.0 0.0
10:38 19.6 12.4 63 1023.1 2.2 NE 5.4 0.0 0.0
10:39 19.7 12.5 63 1022.9 3.1 E 5.4 0.0 0.0
10:40 19.7 12.5 63 1023.0 4.5 NE 5.4 0.0 0.0
10:41 19.7 12.5 63 1022.9 4.5 NE 5.4 0.0 0.0
10:42 19.8 12.6 63 1023.0 3.8 NE 5.4 0.0 0.0
10:43 19.8 12.8 64 1023.1 5.4 NE 5.4 0.0 0.0
10:44 19.8 12.6 63 1023.1 3.1 NE 5.4 0.0 0.0
10:45 19.8 12.6 63 1023.0 2.2 N 5.4 0.0 0.0
10:46 19.8 12.6 63 1023.0 3.1 N 5.4 0.0 0.0
10:47 19.8 12.6 63 1022.9 4.5 N 5.4 0.0 0.0
10:48 19.8 12.6 63 1023.0 3.1 N 5.4 0.0 0.0
10:49 19.9 12.4 62 1023.1 3.1 E 6.9 0.0 0.0
10:50 19.9 12.7 63 1023.2 5.4 N 6.9 0.0 0.0
10:51 19.8 12.1 61 1023.0 3.8 N 6.9 0.0 0.0
10:53 20.0 12.5 62 1023.2 3.8 E 6.9 0.0 0.0
10:54 19.8 11.8 60 1023.1 5.4 SE 6.9 0.0 0.0
10:55 19.7 12.2 62 1023.0 6.9 SE 6.9 0.0 0.0
10:57 19.6 11.9 61 1022.9 3.1 E 6.9 0.0 0.0
10:58 19.6 11.6 60 1023.2 4.5 SE 6.9 0.0 0.0
10:59 19.5 11.8 61 1023.0 5.4 SE 6.9 0.0 0.0
11:01 19.5 11.8 61 1023.0 5.4 E 6.9 0.0 0.0
11:02 19.5 11.8 61 1023.0 5.4 E 6.9 0.0 0.0
11:03 19.5 11.8 61 1023.0 5.4 E 6.9 0.0 0.0
11:05 19.5 11.8 61 1023.2 5.4 E 6.9 0.0 0.0
11:06 19.5 11.5 60 1023.0 3.1 E 6.0 0.0 0.0
11:07 19.5 12.3 63 1023.0 2.2 E 5.4 0.0 0.0
11:08 19.5 11.8 61 1022.9 3.1 NE 5.4 0.0 0.0
11:09 19.6 11.9 61 1023.0 3.1 S 5.4 0.0 0.0
11:10 19.6 11.9 61 1022.8 3.1 E 5.4 0.0 0.0
11:11 19.7 12.0 61 1022.8 4.5 N 5.4 0.0 0.0
11:12 19.7 12.0 61 1023.1 3.8 N 5.4 0.0 0.0
11:14 19.7 11.5 59 1022.9 3.1 E 5.4 0.0 0.0
11:15 19.7 11.7 60 1022.9 6.0 SE 6.0 0.0 0.0
11:16 19.7 11.5 59 1022.9 3.8 E 6.0 0.0 0.0
11:17 19.7 11.7 60 1022.9 3.1 E 6.0 0.0 0.0
11:18 19.7 11.7 60 1023.0 4.5 SE 6.0 0.0 0.0
11:19 19.7 12.2 62 1023.0 3.8 NE 6.0 0.0 0.0
11:20 19.8 12.1 61 1023.0 4.5 SE 6.0 0.0 0.0
11:21 19.9 12.4 62 1022.9 3.8 E 6.0 0.0 0.0
11:22 19.9 11.9 60 1022.9 3.8 N 6.0 0.0 0.0
11:23 19.9 11.9 60 1023.0 3.8 N 6.0 0.0 0.0
11:24 19.9 11.7 59 1022.9 4.5 SE 6.0 0.0 0.0
11:25 19.9 11.9 60 1022.9 3.8 NE 4.5 0.0 0.0
11:26 19.9 11.9 60 1023.1 4.5 N 4.5 0.0 0.0
11:27 19.9 11.7 59 1023.1 3.8 N 4.5 0.0 0.0
11:28 19.9 11.9 60 1022.9 3.1 N 4.5 0.0 0.0
11:30 20.0 11.8 59 1022.9 4.5 E 4.5 0.0 0.0
11:31 19.8 11.6 59 1022.9 6.0 SE 6.0 0.0 0.0
11:32 19.8 11.8 60 1023.0 4.5 E 6.0 0.0 0.0
11:33 19.8 12.1 61 1022.8 2.2 E 6.0 0.0 0.0
11:34 19.9 11.9 60 1023.0 4.5 NE 6.0 0.0 0.0
11:35 19.8 11.6 59 1023.1 6.0 NE 6.0 0.0 0.0
11:36 19.8 11.6 59 1023.0 6.9 NE 6.9 0.0 0.0
11:37 19.7 11.5 59 1023.0 3.8 N 6.9 0.0 0.0
11:38 19.8 11.8 60 1023.1 3.8 NE 6.9 0.0 0.0
11:39 19.8 11.8 60 1023.2 5.4 SE 6.9 0.0 0.0
11:40 19.7 11.5 59 1023.2 6.0 E 6.9 0.0 0.0
11:41 19.7 11.7 60 1023.0 3.8 NE 6.9 0.0 0.0
11:42 19.7 11.5 59 1023.2 4.5 NE 6.9 0.0 0.0
11:43 19.7 11.5 59 1023.1 4.5 N 6.9 0.0 0.0
11:44 19.7 11.5 59 1023.3 4.5 N 6.9 0.0 0.0
11:46 19.5 11.8 61 1023.1 3.8 NE 6.9 0.0 0.0
11:47 19.5 11.8 61 1023.1 3.8 E 6.0 0.0 0.0
11:48 19.5 11.8 61 1023.1 6.0 N 6.0 0.0 0.0
11:49 19.5 12.0 62 1023.2 3.8 N 6.0 0.0 0.0
11:50 19.6 11.9 61 1023.1 5.4 NE 6.0 0.0 0.0
11:51 19.6 11.6 60 1023.2 4.5 SE 6.0 0.0 0.0
11:52 19.6 11.6 60 1023.0 7.6 N 7.6 0.0 0.0
11:53 19.5 11.8 61 1022.9 6.0 E 7.6 0.0 0.0
11:54 19.5 11.5 60 1023.2 4.5 N 7.6 0.0 0.0
11:55 19.5 11.5 60 1023.2 6.0 NE 7.6 0.0 0.0
11:57 19.5 11.3 59 1023.0 3.8 N 7.6 0.0 0.0
11:58 19.4 11.7 61 1023.0 3.8 N 7.6 0.0 0.0
11:59 19.5 12.0 62 1023.2 4.5 E 7.6 0.0 0.0
12:00 19.4 11.9 62 1023.2 3.1 NE 7.6 0.0 0.0
12:01 19.5 12.3 63 1023.3 5.4 E 7.6 0.0 0.0
12:02 19.6 12.4 63 1023.0 3.8 E 6.0 0.0 0.0
12:04 19.6 12.1 62 1023.1 3.8 NE 9.8 0.0 0.0
12:05 19.6 12.1 62 1023.0 3.8 N 9.8 0.0 0.0
12:06 19.6 11.9 61 1023.0 4.5 N 9.8 0.0 0.0
12:07 19.6 11.6 60 1023.0 4.5 NE 9.8 0.0 0.0
12:08 19.6 11.9 61 1023.1 3.1 NE 9.8 0.0 0.0
12:09 19.6 12.4 63 1023.2 3.1 NE 9.8 0.0 0.0
12:11 19.6 12.6 64 1023.2 2.2 N 9.8 0.0 0.0
12:13 19.7 12.5 63 1023.1 4.5 NE 9.8 0.0 0.0
12:14 19.7 12.5 63 1023.0 4.5 SE 5.4 0.0 0.0
12:15 19.7 12.7 64 1023.1 9.8 SE 9.8 0.0 0.0
12:16 19.7 12.7 64 1023.1 6.9 N 9.8 0.0 0.0
12:17 19.8 12.8 64 1023.1 3.8 NE 9.8 0.0 0.0
12:19 19.8 12.3 62 1023.2 4.5 NE 9.8 0.0 0.0
12:20 19.8 12.8 64 1023.2 2.2 NE 9.8 0.0 0.0
12:21 19.8 12.8 64 1023.2 5.4 NE 9.8 0.0 0.0
12:22 19.8 12.8 64 1023.3 3.8 SE 9.8 0.0 0.0
12:23 20.0 13.2 65 1023.0 3.8 N 9.8 0.0 0.0
12:24 19.9 12.9 64 1023.1 6.0 NE 9.8 0.0 0.0
12:25 20.0 12.8 63 1023.1 3.1 NE 9.8 0.0 0.0
12:26 20.0 12.8 63 1023.1 2.2 NE 6.9 0.0 0.0
12:27 20.0 12.8 63 1023.1 6.9 NE 6.9 0.0 0.0
12:28 20.0 13.0 64 1023.0 4.5 SE 6.9 0.0 0.0
12:29 20.0 13.0 64 1023.1 3.8 NE 6.9 0.0 0.0
12:30 20.0 12.8 63 1023.1 6.9 E 6.9 0.0 0.0
12:31 19.9 12.9 64 1023.1 3.8 N 6.9 0.0 0.0
12:32 19.9 12.7 63 1023.1 6.0 SE 6.9 0.0 0.0
12:33 19.9 12.9 64 1023.0 7.6 E 7.6 0.0 0.0
12:35 19.9 13.1 65 1023.0 3.1 NE 7.6 0.0 0.0
12:36 20.0 13.2 65 1023.0 4.5 NE 7.6 0.0 0.0
12:37 20.0 12.8 63 1023.1 6.9 NE 7.6 0.0 0.0
12:38 20.0 13.2 65 1023.1 4.5 NE 7.6 0.0 0.0
12:39 20.1 13.1 64 1023.1 6.9 NE 7.6 0.0 0.0
12:40 20.1 12.8 63 1023.1 6.0 N 7.6 0.0 0.0
12:41 20.1 12.8 63 1023.1 3.8 N 7.6 0.0 0.0
12:42 20.2 13.2 64 1023.0 5.4 NE 7.6 0.0 0.0
12:43 20.2 12.9 63 1023.1 7.6 NE 7.6 0.0 0.0
12:44 20.3 13.0 63 1023.1 4.5 NE 7.6 0.0 0.0
12:45 20.3 13.0 63 1022.9 6.0 NE 7.6 0.0 0.0
12:46 20.3 13.0 63 1022.9 4.5 S 7.6 0.0 0.0
12:47 20.4 12.9 62 1023.1 5.4 NE 7.6 0.0 0.0
12:48 20.4 13.1 63 1023.1 6.9 NE 7.6 0.0 0.0
12:50 20.4 12.9 62 1023.0 3.8 E 7.6 0.0 0.0
12:51 20.4 13.1 63 1023.0 3.1 NE 7.6 0.0 0.0
12:52 20.4 12.6 61 1023.0 6.0 SE 7.6 0.0 0.0
12:53 20.4 13.1 63 1023.0 3.1 SE 7.6 0.0 0.0
12:54 20.4 13.1 63 1023.0 3.1 NE 7.6 0.0 0.0
12:55 20.4 12.9 62 1023.1 4.5 NE 7.6 0.0 0.0
12:56 20.4 13.1 63 1023.1 6.0 E 7.6 0.0 0.0
12:57 20.5 13.2 63 1023.0 4.5 N 7.6 0.0 0.0
12:58 20.5 13.2 63 1023.0 5.4 NE 7.6 0.0 0.0
12:59 20.5 13.5 64 1023.2 3.8 NE 7.6 0.0 0.0
13:00 20.5 13.2 63 1023.1 6.9 SE 7.6 0.0 0.0
13:01 20.5 13.0 62 1023.1 3.8 NE 6.9 0.0 0.0
13:02 20.4 12.9 62 1023.0 9.2 N 9.2 0.0 0.0
13:04 20.3 13.0 63 1023.1 7.6 N 9.2 0.0 0.0
13:05 20.3 13.3 64 1023.0 4.5 N 9.2 0.0 0.0
13:06 20.3 13.5 65 1023.1 3.8 N 9.2 0.0 0.0
13:07 20.3 13.3 64 1023.1 3.8 NE 9.2 0.0 0.0
13:08 20.3 13.3 64 1023.2 3.8 E 9.2 0.0 0.0
13:09 20.3 13.0 63 1023.1 3.8 NE 9.2 0.0 0.0
13:10 20.3 13.0 63 1023.1 3.8 N 9.2 0.0 0.0
13:11 20.3 13.0 63 1023.1 3.8 SE 9.2 0.0 0.0
13:12 20.3 13.0 63 1023.1 3.8 N 9.2 0.0 0.0
13:13 20.2 12.9 63 1023.1 5.4 NE 7.6 0.0 0.0
13:14 20.2 13.2 64 1022.9 3.1 N 5.4 0.0 0.0
13:15 20.3 14.0 67 1023.1 3.8 NE 5.4 0.0 0.0
13:16 20.3 13.5 65 1023.1 6.9 NE 6.9 0.0 0.0
13:17 20.4 12.9 62 1023.0 7.6 NE 7.6 0.0 0.0
13:19 20.4 13.1 63 1023.1 3.1 NE 7.6 0.0 0.0
13:20 20.3 12.8 62 1023.1 3.1 NE 7.6 0.0 0.0
13:21 20.3 13.0 63 1023.1 3.8 NE 7.6 0.0 0.0
13:22 20.3 13.0 63 1023.0 4.5 SE 7.6 0.0 0.0
13:23 20.3 13.0 63 1023.0 4.5 SE 7.6 0.0 0.0
13:24 20.3 13.3 64 1023.0 4.5 SE 7.6 0.0 0.0
13:25 20.2 12.7 62 1023.1 3.8 E 7.6 0.0 0.0
13:26 20.2 12.9 63 1023.1 3.8 NE 7.6 0.0 0.0
13:27 20.2 12.9 63 1023.1 5.4 NE 7.6 0.0 0.0
13:28 20.2 12.7 62 1023.1 3.1 NE 5.4 0.0 0.0
13:29 20.2 12.7 62 1023.1 3.1 NE 5.4 0.0 0.0
13:30 20.2 12.9 63 1023.0 4.5 NE 5.4 0.0 0.0
13:31 20.2 12.7 62 1023.0 4.5 NE 5.4 0.0 0.0
13:32 20.2 12.7 62 1023.0 6.0 NE 6.0 0.0 0.0
13:34 20.2 12.9 63 1023.1 3.8 NE 6.0 0.0 0.0
13:35 20.2 12.7 62 1023.1 5.4 NE 6.0 0.0 0.0
13:36 20.3 12.8 62 1023.0 6.0 NE 6.0 0.0 0.0
13:37 20.3 12.5 61 1022.9 3.1 E 6.0 0.0 0.0
13:38 20.2 12.2 60 1023.1 4.5 SE 6.0 0.0 0.0
13:39 20.2 12.5 61 1023.1 5.4 SE 6.0 0.0 0.0
13:40 20.2 12.5 61 1023.1 4.5 SE 6.0 0.0 0.0
13:41 20.1 12.6 62 1022.9 5.4 SE 6.0 0.0 0.0
13:42 20.2 12.9 63 1023.0 4.5 NE 6.0 0.0 0.0
13:43 20.2 12.7 62 1023.0 4.5 NE 6.0 0.0 0.0
13:44 20.1 12.6 62 1023.1 3.8 NE 6.0 0.0 0.0
13:45 20.2 12.7 62 1023.0 3.1 NE 6.0 0.0 0.0
13:46 20.2 12.7 62 1022.9 2.2 NE 5.4 0.0 0.0
13:48 20.1 12.4 61 1023.0 3.1 NE 5.4 0.0 0.0
13:49 20.1 12.6 62 1023.1 3.1 NE 5.4 0.0 0.0
13:50 20.1 12.6 62 1023.0 3.8 E 5.4 0.0 0.0
13:51 20.1 12.6 62 1023.1 3.1 NE 5.4 0.0 0.0
13:52 20.1 12.8 63 1023.1 3.8 NE 4.5 0.0 0.0
13:53 20.1 12.8 63 1023.1 3.1 NE 4.5 0.0 0.0
13:54 20.1 13.1 64 1023.0 3.1 NE 4.5 0.0 0.0
13:55 20.3 13.3 64 1022.9 6.0 NE 6.0 0.0 0.0
13:56 20.3 12.8 62 1022.8 6.9 NE 6.9 0.0 0.0
13:57 20.3 13.0 63 1022.9 6.0 NE 6.9 0.0 0.0
13:58 20.4 13.1 63 1023.1 3.8 NE 6.9 0.0 0.0
13:59 20.4 13.4 64 1022.9 6.0 NE 7.6 0.0 0.0
14:00 20.4 13.4 64 1022.9 6.0 NE 7.6 0.0 0.0
14:01 20.5 13.2 63 1022.9 6.0 NE 7.6 0.0 0.0
14:03 20.5 13.0 62 1022.9 3.8 NE 7.6 0.0 0.0
14:04 20.5 13.0 62 1022.8 6.0 NE 7.6 0.0 0.0
14:05 20.5 13.0 62 1023.0 3.8 NE 7.6 0.0 0.0
14:06 20.4 12.9 62 1022.9 3.8 NE 7.6 0.0 0.0
14:07 20.4 12.9 62 1022.9 4.5 SE 7.6 0.0 0.0
14:08 20.4 13.1 63 1022.8 5.4 NE 7.6 0.0 0.0
14:10 20.4 13.1 63 1022.9 6.9 NE 7.6 0.0 0.0
14:11 20.4 13.1 63 1022.7 3.1 NE 7.6 0.0 0.0
14:12 20.4 13.1 63 1022.9 5.4 NE 7.6 0.0 0.0
14:14 20.4 13.6 65 1023.0 4.5 NE 7.6 0.0 0.0
14:15 20.5 13.2 63 1022.8 3.8 NE 7.6 0.0 0.0
14:16 20.5 13.0 62 1022.8 5.4 NE 7.6 0.0 0.0
14:18 20.5 13.0 62 1022.9 3.8 SE 7.6 0.0 0.0
14:19 20.5 13.0 62 1022.9 3.1 NE 6.9 0.0 0.0
14:20 20.5 13.0 62 1022.8 3.1 E 5.4 0.0 0.0
14:21 20.4 13.1 63 1022.9 2.2 NE 5.4 0.0 0.0
14:22 20.4 12.9 62 1022.8 3.8 NE 5.4 0.0 0.0
14:23 20.4 12.9 62 1022.8 5.4 NE 5.4 0.0 0.0
14:24 20.4 13.1 63 1022.8 3.8 NE 5.4 0.0 0.0
14:25 20.4 12.9 62 1022.9 6.0 NE 6.0 0.0 0.0
14:26 20.4 12.6 61 1022.9 4.5 NE 6.0 0.0 0.0
14:28 20.4 12.9 62 1022.8 4.5 E 6.0 0.0 0.0
14:29 20.4 12.9 62 1022.8 3.8 N 6.0 0.0 0.0
14:31 20.4 12.9 62 1022.8 6.0 SE 6.0 0.0 0.0
14:32 20.4 13.1 63 1022.8 4.5 E 6.0 0.0 0.0
14:33 20.4 12.9 62 1022.7 5.4 NE 6.0 0.0 0.0
14:34 20.4 12.6 61 1022.8 5.4 NE 6.0 0.0 0.0
14:35 20.4 12.9 62 1022.8 3.1 NE 6.0 0.0 0.0
14:36 20.4 12.9 62 1022.8 2.2 NE 6.0 0.0 0.0
14:38 20.4 12.9 62 1022.9 6.0 NE 6.0 0.0 0.0
14:39 20.4 13.1 63 1022.7 3.1 NE 6.0 0.0 0.0
14:40 20.4 12.9 62 1022.9 2.2 NE 6.0 0.0 0.0
14:41 20.4 13.1 63 1022.8 4.5 NE 6.0 0.0 0.0
14:42 20.5 13.0 62 1023.0 3.8 NE 6.0 0.0 0.0
14:43 20.5 12.7 61 1022.9 4.5 NE 6.0 0.0 0.0
14:44 20.4 12.6 61 1022.8 4.5 SE 6.0 0.0 0.0
14:45 20.4 12.6 61 1022.8 5.4 E 6.0 0.0 0.0
14:46 20.4 13.1 63 1022.7 6.0 NE 6.0 0.0 0.0
14:47 20.4 13.1 63 1022.8 4.5 NE 6.0 0.0 0.0
14:48 20.5 13.0 62 1022.8 3.8 NE 6.0 0.0 0.0
14:49 20.5 13.2 63 1022.8 4.5 NE 6.0 0.0 0.0
14:50 20.5 13.2 63 1022.8 3.8 NE 6.0 0.0 0.0
14:52 20.6 13.1 62 1022.7 3.8 NE 6.0 0.0 0.0
14:53 20.6 13.3 63 1022.8 3.8 SE 6.0 0.0 0.0
14:54 20.6 13.1 62 1022.7 2.2 E 6.0 0.0 0.0
14:55 20.6 13.1 62 1022.8 4.5 SE 6.0 0.0 0.0
14:56 20.6 12.6 60 1022.8 5.4 SE 6.0 0.0 0.0
14:57 20.5 12.5 60 1022.6 3.8 SE 5.4 0.0 0.0
14:58 20.5 13.0 62 1022.6 5.4 NE 5.4 0.0 0.0
14:59 20.5 13.0 62 1022.7 3.8 NE 5.4 0.0 0.0
15:00 20.5 12.7 61 1022.8 3.8 E 5.4 0.0 0.0
15:02 20.5 12.7 61 1022.7 3.1 NE 5.4 0.0 0.0
15:03 20.5 13.0 62 1022.8 4.5 NE 5.4 0.0 0.0
15:04 20.5 13.0 62 1022.7 3.8 NE 5.4 0.0 0.0
15:05 20.5 12.7 61 1022.7 3.1 E 5.4 0.0 0.0
15:06 20.5 13.0 62 1022.8 6.9 NE 6.9 0.0 0.0
15:07 20.5 13.2 63 1022.8 6.0 NE 6.9 0.0 0.0
15:08 20.6 13.6 64 1022.8 4.5 NE 6.9 0.0 0.0
15:09 20.7 13.2 62 1022.8 4.5 NE 6.9 0.0 0.0
15:10 20.7 13.2 62 1022.6 3.1 N 6.9 0.0 0.0
15:11 20.7 12.9 61 1022.8 3.1 E 6.9 0.0 0.0
15:12 20.8 13.3 62 1022.6 3.8 NE 6.9 0.0 0.0
15:13 20.8 13.3 62 1022.7 5.4 NE 6.9 0.0 0.0
15:14 20.8 13.3 62 1022.8 4.5 NE 6.9 0.0 0.0
15:16 20.9 12.6 59 1022.6 2.2 E 6.9 0.0 0.0
15:17 20.8 13.0 61 1022.7 6.0 S 6.0 0.0 0.0
15:18 20.7 12.7 60 1022.6 4.5 SE 6.0 0.0 0.0
15:19 20.7 13.2 62 1022.8 3.8 SE 6.0 0.0 0.0
15:20 20.7 13.4 63 1022.6 3.1 E 6.0 0.0 0.0
15:21 20.7 13.7 64 1022.7 5.4 N 6.0 0.0 0.0
15:22 20.8 13.3 62 1022.7 2.2 N 6.0 0.0 0.0
15:23 20.8 13.0 61 1022.6 3.1 N 6.0 0.0 0.0
15:24 20.9 13.6 63 1022.7 3.1 NE 6.0 0.0 0.0
15:25 21.0 13.2 61 1022.5 3.1 NE 6.0 0.0 0.0
15:26 21.0 13.2 61 1022.7 3.1 E 6.0 0.0 0.0
15:27 21.0 13.5 62 1022.6 3.8 NE 5.4 0.0 0.0
15:28 21.0 13.2 61 1022.6 3.8 NE 5.4 0.0 0.0
15:30 20.9 12.9 60 1022.6 3.8 SE 5.4 0.0 0.0
15:31 20.9 13.4 62 1022.6 3.1 SE 5.4 0.0 0.0
15:32 20.9 13.6 63 1022.6 3.1 E 5.4 0.0 0.0
15:33 20.9 13.1 61 1022.7 3.8 E 5.4 0.0 0.0
15:34 20.9 12.6 59 1022.6 3.1 E 5.4 0.0 0.0
15:35 20.9 12.9 60 1022.6 4.5 NW 4.5 0.0 0.0
15:36 20.8 13.0 61 1022.6 3.1 E 5.4 0.0 0.0
15:37 20.7 13.2 62 1022.6 2.2 E 5.4 0.0 0.0
15:38 20.7 13.7 64 1022.7 3.1 E 5.4 0.0 0.0
15:39 20.7 13.7 64 1022.6 6.0 NE 6.0 0.0 0.0
15:40 20.7 13.9 65 1022.6 3.8 NE 6.0 0.0 0.0
15:41 20.7 13.4 63 1022.6 3.1 NE 6.0 0.0 0.0
15:43 20.6 13.1 62 1022.5 2.2 E 6.0 0.0 0.0
15:44 20.6 13.3 63 1022.7 5.4 NE 6.0 0.0 0.0
15:45 20.6 13.8 65 1022.6 5.4 NE 6.9 0.0 0.0
15:46 20.7 13.7 64 1022.6 3.8 NE 6.9 0.0 0.0
15:47 20.7 13.7 64 1022.6 2.2 NE 6.9 0.0 0.0
15:48 20.8 14.0 65 1022.5 5.4 NE 6.9 0.0 0.0
15:49 20.9 13.4 62 1022.6 3.1 E 6.9 0.0 0.0
15:50 20.9 13.8 64 1022.4 3.1 E 6.9 0.0 0.0
15:51 20.9 13.8 64 1022.5 5.4 NE 6.9 0.0 0.0
15:52 21.0 13.7 63 1022.5 3.1 NE 6.9 0.0 0.0
15:53 21.0 13.9 64 1022.5 3.8 NE 6.9 0.0 0.0
15:54 21.0 13.5 62 1022.5 3.8 E 6.9 0.0 0.0
15:55 21.0 13.7 63 1022.6 2.2 E 5.4 0.0 0.0
15:57 21.0 13.7 63 1022.4 3.8 N 5.4 0.0 0.0
15:58 21.1 13.5 62 1022.4 3.8 N 5.4 0.0 0.0
15:59 21.1 13.3 61 1022.5 3.1 N 5.4 0.0 0.0
16:00 21.2 13.9 63 1022.5 3.8 N 5.4 0.0 0.0
16:01 21.2 13.9 63 1022.3 3.1 NW 4.5 0.0 0.0
16:02 21.3 14.0 63 1022.4 5.4 N 5.4 0.0 0.0
16:03 21.3 14.0 63 1022.4 3.8 N 5.4 0.0 0.0
16:04 21.5 13.7 61 1022.5 3.8 E 5.4 0.0 0.0
16:05 21.5 13.4 60 1022.4 3.1 E 5.4 0.0 0.0
16:07 21.5 13.7 61 1022.3 3.8 NE 5.4 0.0 0.0
16:08 21.5 13.9 62 1022.3 5.4 NE 5.4 0.0 0.0
16:09 21.5 13.4 60 1022.3 3.1 NE 5.4 0.0 0.0
16:10 21.5 13.7 61 1022.3 4.5 NE 5.4 0.0 0.0
16:12 21.6 13.3 59 1022.5 2.2 NE 5.4 0.0 0.0
16:13 21.6 14.0 62 1022.3 2.2 NE 5.4 0.0 0.0
16:15 21.6 13.5 60 1022.3 2.2 NE 5.4 0.0 0.0
16:16 21.6 13.5 60 1022.3 3.8 NE 5.4 0.0 0.0
16:17 21.7 14.1 62 1022.4 3.8 NE 5.4 0.0 0.0
16:18 21.8 13.4 59 1022.2 1.6 NE 5.4 0.0 0.0
16:20 21.8 13.4 59 1022.3 3.1 NE 5.4 0.0 0.0
16:21 21.8 13.4 59 1022.3 3.1 NE 5.4 0.0 0.0
16:22 21.7 14.1 62 1022.4 3.8 NE 5.4 0.0 0.0
16:23 21.7 13.4 59 1022.3 3.1 NE 5.4 0.0 0.0
16:24 21.7 13.6 60 1022.3 2.2 NE 5.4 0.0 0.0
16:25 21.7 13.9 61 1022.3 3.1 NE 5.4 0.0 0.0
16:26 21.8 13.4 59 1022.3 2.2 NE 3.8 0.0 0.0
16:27 21.8 14.2 62 1022.3 2.2 NE 3.8 0.0 0.0
16:28 21.9 13.8 60 1022.2 3.1 NE 3.8 0.0 0.0
16:29 21.9 14.1 61 1022.3 3.1 NE 3.8 0.0 0.0
16:30 22.0 14.1 61 1022.2 4.5 NE 4.5 0.0 0.0
16:31 22.0 14.1 61 1022.1 3.8 NE 4.5 0.0 0.0
16:32 22.1 13.7 59 1022.3 3.8 NE 4.5 0.0 0.0
16:34 22.2 13.8 59 1022.3 3.1 NE 4.5 0.0 0.0
16:35 22.2 13.8 59 1022.2 3.1 NE 4.5 0.0 0.0
16:38 22.4 13.7 58 1022.0 3.1 NE 4.5 0.0 0.0
16:40 22.3 13.7 58 1022.3 2.2 E 4.5 0.0 0.0
16:42 22.4 14.3 60 1022.1 4.5 NE 4.5 0.0 0.0
16:45 22.5 13.8 58 1022.2 5.4 NE 5.4 0.0 0.0
16:46 22.6 13.9 58 1022.2 4.5 NE 5.4 0.0 0.0
16:47 22.6 13.9 58 1022.2 3.8 NE 5.4 0.0 0.0
16:48 22.7 14.3 59 1022.0 4.5 NE 5.4 0.0 0.0
16:49 22.7 14.3 59 1022.3 3.1 NE 5.4 0.0 0.0
16:51 22.8 14.1 58 1022.1 1.6 NE 5.4 0.0 0.0
16:52 22.9 14.2 58 1022.2 1.6 NE 5.4 0.0 0.0
16:53 22.9 13.9 57 1022.2 2.2 NE 5.4 0.0 0.0
16:54 22.9 14.2 58 1022.1 4.5 NW 5.4 0.0 0.0
16:55 22.9 13.7 56 1022.1 3.1 NW 5.4 0.0 0.0
16:56 22.9 13.7 56 1022.1 2.2 NW 4.5 0.0 0.0
16:57 22.9 13.9 57 1022.1 2.2 NW 4.5 0.0 0.0
16:58 22.9 13.9 57 1022.1 3.1 NW 4.5 0.0 0.0
16:59 22.9 13.9 57 1022.1 3.8 NW 4.5 0.0 0.0
17:00 22.9 13.9 57 1022.1 3.1 NW 4.5 0.0 0.0
17:01 22.9 13.9 57 1022.0 3.1 NW 4.5 0.0 0.0
17:03 22.9 13.9 57 1022.2 3.1 NW 4.5 0.0 0.0
17:04 22.9 13.9 57 1022.3 3.1 NW 4.5 0.0 0.0
17:05 22.9 13.9 57 1022.0 3.1 NW 4.5 0.0 0.0
17:06 22.9 14.5 59 1022.2 3.1 NW 3.8 0.0 0.0
17:07 23.0 14.8 60 1022.1 2.2 NW 3.8 0.0 0.0
17:08 23.0 14.6 59 1022.1 3.1 NW 3.8 0.0 0.0
17:09 23.0 14.3 58 1022.1 3.1 E 3.8 0.0 0.0
17:10 23.0 14.3 58 1022.2 4.5 SE 4.5 0.0 0.0
17:11 23.0 14.0 57 1022.1 4.5 NE 4.5 0.0 0.0
17:12 22.9 13.9 57 1022.2 3.1 S 4.5 0.0 0.0
17:13 22.9 14.2 58 1022.2 2.2 W 4.5 0.0 0.0
17:14 22.9 14.2 58 1022.1 5.4 SW 5.4 0.0 0.0
17:15 22.8 14.1 58 1022.0 5.4 E 5.4 0.0 0.0
17:17 22.7 13.8 57 1022.1 3.8 E 5.4 0.0 0.0
17:18 22.6 13.7 57 1022.1 6.0 SE 6.0 0.0 0.0
17:19 22.5 13.6 57 1022.2 3.1 SE 6.0 0.0 0.0
17:20 22.4 13.7 58 1022.0 2.2 SE 6.0 0.0 0.0
17:21 22.3 13.9 59 1022.1 1.6 SE 6.0 0.0 0.0
17:22 22.2 14.1 60 1022.0 4.5 SW 6.0 0.0 0.0
17:23 22.3 14.2 60 1021.8 5.4 S 6.0 0.0 0.0
17:24 22.3 14.4 61 1022.1 5.4 S 6.0 0.0 0.0
17:25 22.2 14.1 60 1022.1 6.0 S 6.0 0.0 0.0
17:26 22.1 13.7 59 1021.8 6.0 SE 6.0 0.0 0.0
17:27 22.0 14.1 61 1022.0 4.5 SW 6.0 0.0 0.0
17:29 21.9 14.3 62 1022.0 4.5 S 6.0 0.0 0.0
17:30 21.9 13.8 60 1022.0 5.4 SE 6.0 0.0 0.0
17:31 21.8 13.7 60 1021.9 3.8 S 6.0 0.0 0.0
17:32 21.8 14.0 61 1022.1 6.0 S 6.0 0.0 0.0
17:33 21.8 13.7 60 1021.9 4.5 S 6.0 0.0 0.0
17:34 21.7 13.6 60 1021.9 1.6 SW 6.0 0.0 0.0
17:35 21.7 14.1 62 1021.9 2.2 SW 6.0 0.0 0.0
17:36 21.7 13.9 61 1021.9 3.8 SE 6.0 0.0 0.0
17:37 21.8 13.7 60 1022.0 4.5 SW 6.0 0.0 0.0
17:38 21.8 13.7 60 1021.9 4.5 SW 6.0 0.0 0.0
17:39 21.8 14.0 61 1022.0 3.1 NE 6.0 0.0 0.0
17:40 21.8 14.0 61 1021.9 3.8 NE 6.0 0.0 0.0
17:41 21.8 14.0 61 1021.9 3.8 NE 6.0 0.0 0.0
17:43 21.7 13.6 60 1021.9 5.4 SE 5.4 0.0 0.0
17:44 21.7 13.4 59 1022.0 4.5 SE 5.4 0.0 0.0
17:45 21.7 13.4 59 1021.9 3.1 SE 5.4 0.0 0.0
17:46 21.6 13.5 60 1022.0 3.1 SE 5.4 0.0 0.0
17:47 21.6 13.8 61 1021.9 4.5 SE 5.4 0.0 0.0
17:48 21.6 13.8 61 1021.8 3.1 SE 5.4 0.0 0.0
17:49 21.6 13.8 61 1021.8 3.1 SE 5.4 0.0 0.0
17:50 21.6 13.8 61 1021.8 2.2 SE 5.4 0.0 0.0
17:51 21.6 13.5 60 1021.7 1.6 SE 5.4 0.0 0.0
17:52 21.7 13.9 61 1021.8 3.1 E 5.4 0.0 0.0
17:54 21.8 13.7 60 1021.8 2.2 E 4.5 0.0 0.0
17:55 21.8 13.4 59 1021.7 1.6 E 4.5 0.0 0.0
17:56 21.9 13.5 59 1021.8 2.2 E 4.5 0.0 0.0
17:57 21.9 13.5 59 1021.8 3.1 E 4.5 0.0 0.0
17:58 21.9 13.8 60 1021.7 0.7 E 3.1 0.0 0.0
17:59 21.9 13.8 60 1021.7 0.7 E 3.1 0.0 0.0
18:00 21.9 13.8 60 1021.7 1.6 E 3.1 0.0 0.0
18:01 21.9 13.8 60 1021.8 1.6 E 3.1 0.0 0.0
18:02 21.9 13.8 60 1021.8 1.6 E 3.1 0.0 0.0
18:03 21.9 13.8 60 1021.9 1.6 E 3.1 0.0 0.0
18:05 21.9 13.8 60 1021.7 1.6 E 3.1 0.0 0.0
18:06 21.7 13.4 59 1021.7 1.6 E 3.1 0.0 0.0
18:07 21.7 13.4 59 1021.7 1.6 E 1.6 0.0 0.0
18:08 21.7 13.4 59 1021.7 2.2 E 2.2 0.0 0.0
18:09 21.6 13.3 59 1021.7 3.8 SW 3.8 0.0 0.0
18:10 21.6 13.3 59 1021.8 3.1 S 5.4 0.0 0.0
18:12 21.4 13.3 60 1021.8 3.8 SW 5.4 0.0 0.0
18:13 21.3 13.5 61 1021.7 3.1 SW 5.4 0.0 0.0
18:15 21.3 13.5 61 1021.8 2.2 W 5.4 0.0 0.0
18:16 21.3 13.5 61 1021.8 3.1 SW 5.4 0.0 0.0
18:18 21.3 13.5 61 1021.8 2.2 SW 5.4 0.0 0.0
18:19 21.3 13.5 61 1021.8 2.2 SW 5.4 0.0 0.0
18:20 21.2 13.4 61 1021.8 3.1 SW 4.5 0.0 0.0
18:21 21.2 13.4 61 1021.6 2.2 NW 4.5 0.0 0.0
18:22 21.2 13.6 62 1021.7 3.8 NW 4.5 0.0 0.0
18:23 21.2 13.6 62 1021.8 3.1 NW 3.8 0.0 0.0
18:25 21.2 13.4 61 1021.8 2.2 NW 3.8 0.0 0.0
18:26 21.3 13.7 62 1021.8 1.6 NW 3.8 0.0 0.0
18:27 21.3 13.7 62 1021.7 3.1 NW 3.8 0.0 0.0
18:28 21.4 13.8 62 1021.7 5.4 NW 5.4 0.0 0.0
18:29 21.4 13.6 61 1021.7 5.4 NW 5.4 0.0 0.0
18:30 21.4 13.3 60 1021.8 3.8 W 5.4 0.0 0.0
18:31 21.4 13.3 60 1021.7 3.8 W 5.4 0.0 0.0
18:32 21.5 13.7 61 1021.6 4.5 NW 6.0 0.0 0.0
18:33 21.5 13.7 61 1021.7 3.1 NW 6.0 0.0 0.0
18:34 21.5 13.7 61 1021.7 3.8 NW 6.0 0.0 0.0
18:36 21.5 13.7 61 1021.6 4.5 NW 6.0 0.0 0.0
18:37 21.6 13.8 61 1021.8 5.4 NW 6.0 0.0 0.0
18:38 21.6 13.8 61 1021.8 6.9 NW 6.9 0.0 0.0
18:39 21.6 13.8 61 1021.7 3.8 NW 6.9 0.0 0.0
18:40 21.7 13.9 61 1021.7 2.2 NW 6.9 0.0 0.0
18:41 21.7 13.6 60 1021.7 3.8 NW 6.9 0.0 0.0
18:42 21.7 13.6 60 1021.7 2.2 NW 6.9 0.0 0.0
18:43 21.7 13.6 60 1021.7 3.1 NW 6.9 0.0 0.0
18:44 21.7 13.6 60 1021.5 4.5 NW 6.9 0.0 0.0
18:45 21.7 13.6 60 1021.7 2.2 NW 6.9 0.0 0.0
18:46 21.8 13.7 60 1021.7 4.5 NW 6.9 0.0 0.0
18:47 21.7 13.4 59 1021.6 4.5 NW 6.9 0.0 0.0
18:48 21.8 13.4 59 1021.8 3.1 NW 6.0 0.0 0.0
18:50 21.7 13.6 60 1021.7 4.5 NW 6.0 0.0 0.0
18:51 21.8 13.7 60 1021.7 3.8 NW 6.0 0.0 0.0
18:52 21.8 13.7 60 1021.6 3.8 NW 6.0 0.0 0.0
18:53 21.8 13.7 60 1021.6 3.1 NW 6.0 0.0 0.0
18:54 21.8 13.7 60 1021.7 3.8 NW 6.0 0.0 0.0
18:55 21.8 13.7 60 1021.8 3.1 NW 6.0 0.0 0.0
18:56 21.8 13.7 60 1021.8 3.1 NW 6.0 0.0 0.0
18:57 21.8 13.7 60 1021.7 4.5 NW 6.0 0.0 0.0
18:58 21.8 13.7 60 1021.7 5.4 NW 5.4 0.0 0.0
18:59 21.8 13.7 60 1021.6 4.5 N 5.4 0.0 0.0
19:01 21.8 13.4 59 1021.6 3.8 N 5.4 0.0 0.0
19:02 21.8 13.4 59 1021.6 3.8 N 5.4 0.0 0.0
19:03 21.7 13.4 59 1021.6 3.8 NW 5.4 0.0 0.0
19:04 21.7 13.4 59 1021.7 3.8 NW 5.4 0.0 0.0
19:05 21.6 13.3 59 1021.7 5.4 W 5.4 0.0 0.0
19:06 21.6 13.3 59 1021.7 5.4 W 5.4 0.0 0.0
19:07 21.6 13.0 58 1021.9 3.8 NW 5.4 0.0 0.0
19:08 21.5 13.2 59 1021.9 3.1 NW 5.4 0.0 0.0
19:09 21.5 13.2 59 1021.8 3.8 NW 5.4 0.0 0.0
19:10 21.5 13.2 59 1021.8 4.5 NW 5.4 0.0 0.0
19:11 21.5 13.2 59 1021.7 4.5 N 5.4 0.0 0.0
19:12 21.4 13.1 59 1021.7 2.2 N 5.4 0.0 0.0
19:13 21.4 13.1 59 1021.8 2.2 N 5.4 0.0 0.0
19:15 21.4 13.1 59 1021.8 3.8 N 5.4 0.0 0.0
19:16 21.4 13.3 60 1021.6 2.2 NW 5.4 0.0 0.0
19:17 21.4 13.3 60 1021.8 4.5 NW 4.5 0.0 0.0
19:18 21.4 13.3 60 1021.7 4.5 NW 4.5 0.0 0.0
19:19 21.4 13.3 60 1021.7 4.5 NW 4.5 0.0 0.0
19:20 21.4 13.3 60 1021.7 3.8 NW 4.5 0.0 0.0
19:21 21.4 13.3 60 1021.8 3.1 NW 4.5 0.0 0.0
19:22 21.4 13.6 61 1021.8 1.6 NW 4.5 0.0 0.0
19:23 21.3 13.5 61 1021.7 4.5 NW 4.5 0.0 0.0
19:24 21.3 13.5 61 1021.8 3.1 NW 4.5 0.0 0.0
19:25 21.3 13.5 61 1021.7 5.4 NW 5.4 0.0 0.0
19:26 21.3 13.5 61 1021.8 4.5 NW 5.4 0.0 0.0
19:27 21.3 13.5 61 1021.7 3.1 NW 5.4 0.0 0.0
19:28 21.3 13.5 61 1021.8 3.1 NW 5.4 0.0 0.0
19:29 21.3 13.5 61 1021.8 2.2 NW 5.4 0.0 0.0
19:31 21.3 13.5 61 1021.8 1.6 NW 5.4 0.0 0.0
19:32 21.3 13.5 61 1021.8 4.5 NW 5.4 0.0 0.0
19:33 21.2 13.4 61 1021.8 3.8 NW 5.4 0.0 0.0
19:34 21.2 13.4 61 1021.9 3.1 NW 5.4 0.0 0.0
19:35 21.2 13.1 60 1021.8 4.5 NW 5.4 0.0 0.0
19:36 21.1 13.3 61 1021.8 3.1 NW 4.5 0.0 0.0
19:37 21.0 13.2 61 1021.9 1.6 NW 4.5 0.0 0.0
19:38 21.0 13.2 61 1021.8 3.1 NW 4.5 0.0 0.0
19:39 20.9 13.1 61 1021.8 2.2 NW 4.5 0.0 0.0
19:40 20.8 13.0 61 1021.9 3.1 NW 4.5 0.0 0.0
19:42 20.8 13.0 61 1021.9 2.2 NW 4.5 0.0 0.0
19:43 20.7 12.9 61 1021.8 1.6 NW 4.5 0.0 0.0
19:44 20.6 12.8 61 1021.8 2.2 NW 4.5 0.0 0.0
19:45 20.5 13.0 62 1021.9 2.2 NW 4.5 0.0 0.0
19:46 20.4 12.9 62 1021.8 2.2 NW 3.8 0.0 0.0
19:47 20.3 12.8 62 1021.9 2.2 NW 3.8 0.0 0.0
19:48 20.3 12.8 62 1021.8 3.1 NW 3.8 0.0 0.0
19:49 20.2 12.7 62 1022.0 3.8 NW 3.8 0.0 0.0
19:50 20.2 12.7 62 1022.0 3.8 NW 3.8 0.0 0.0
19:51 20.1 12.8 63 1021.9 3.8 NW 3.8 0.0 0.0
19:52 20.1 12.8 63 1021.9 2.2 NW 3.8 0.0 0.0
19:53 20.0 12.8 63 1021.9 2.2 NW 3.8 0.0 0.0
19:55 19.9 12.7 63 1022.0 1.6 NW 3.8 0.0 0.0
19:56 19.8 12.6 63 1021.9 2.2 NW 3.8 0.0 0.0
19:57 19.8 12.8 64 1021.8 1.6 NW 3.8 0.0 0.0
19:58 19.7 12.7 64 1021.9 1.6 NW 3.8 0.0 0.0
19:59 19.7 12.7 64 1021.8 1.6 NW 3.8 0.0 0.0
20:00 19.6 12.6 64 1022.0 2.2 NW 3.8 0.0 0.0
20:01 19.6 12.6 64 1021.9 2.2 NW 3.8 0.0 0.0
20:02 19.6 12.6 64 1021.9 2.2 NW 3.1 0.0 0.0
20:03 19.6 12.6 64 1021.8 2.2 NW 3.1 0.0 0.0
20:04 19.6 12.6 64 1021.8 2.2 NW 3.1 0.0 0.0
20:05 19.6 12.6 64 1021.8 2.2 NW 3.1 0.0 0.0
20:06 19.5 12.5 64 1022.0 1.6 NW 2.2 0.0 0.0
20:07 19.5 12.5 64 1021.8 1.6 NW 2.2 0.0 0.0
20:08 19.4 12.4 64 1021.8 1.6 NW 2.2 0.0 0.0
20:10 19.4 12.4 64 1021.7 1.6 NW 2.2 0.0 0.0
20:11 19.3 12.3 64 1021.8 2.2 NW 2.2 0.0 0.0
20:13 19.2 12.2 64 1021.8 1.6 NW 2.2 0.0 0.0
20:14 19.2 12.2 64 1021.8 2.2 NW 2.2 0.0 0.0
20:16 19.2 12.2 64 1021.9 2.2 NW 2.2 0.0 0.0
20:17 19.1 12.1 64 1021.9 2.2 NW 2.2 0.0 0.0
20:18 19.1 12.1 64 1021.9 1.6 NW 2.2 0.0 0.0
20:19 19.0 12.0 64 1021.9 0.7 NW 2.2 0.0 0.0
20:21 18.9 12.0 64 1021.8 2.2 NW 2.2 0.0 0.0
20:22 18.9 11.7 63 1021.9 1.6 NW 2.2 0.0 0.0
20:23 18.9 12.0 64 1021.8 2.2 NW 2.2 0.0 0.0
20:24 18.8 11.6 63 1021.8 2.2 NW 2.2 0.0 0.0
20:25 18.7 11.5 63 1021.8 1.6 NW 2.2 0.0 0.0
20:26 18.7 11.5 63 1021.8 2.2 NW 2.2 0.0 0.0
20:27 18.7 11.8 64 1021.8 2.2 NW 2.2 0.0 0.0
20:28 18.5 11.3 63 1021.8 2.2 NW 3.1 0.0 0.0
20:29 18.5 11.3 63 1021.8 1.6 NW 3.1 0.0 0.0
20:30 18.5 11.6 64 1021.9 1.6 NW 3.1 0.0 0.0
20:31 18.3 11.4 64 1021.7 0.7 NW 3.1 0.0 0.0
20:32 18.3 11.4 64 1021.8 2.2 NW 3.1 0.0 0.0
20:33 18.3 11.4 64 1021.8 2.2 NW 3.1 0.0 0.0
20:34 18.1 11.2 64 1021.8 0.7 NW 3.1 0.0 0.0
20:35 18.1 11.2 64 1021.8 2.2 NW 3.1 0.0 0.0
20:36 18.1 11.2 64 1021.7 1.6 NW 3.1 0.0 0.0
20:38 18.0 11.1 64 1021.8 2.2 NW 2.2 0.0 0.0
20:39 17.9 11.0 64 1021.8 1.6 NW 2.2 0.0 0.0
20:40 17.8 10.9 64 1021.7 1.6 NW 2.2 0.0 0.0
20:41 17.8 10.9 64 1021.8 1.6 NW 2.2 0.0 0.0
20:42 17.8 10.9 64 1021.9 0.7 NW 2.2 0.0 0.0
20:43 17.7 10.8 64 1021.8 0.7 NW 2.2 0.0 0.0
20:44 17.6 10.7 64 1021.8 0.7 NW 2.2 0.0 0.0
20:45 17.6 10.7 64 1021.8 0.0 NW 2.2 0.0 0.0
20:46 17.5 10.6 64 1021.8 0.7 NW 2.2 0.0 0.0
20:47 17.5 10.9 65 1021.7 0.7 NW 2.2 0.0 0.0
20:48 17.5 10.9 65 1021.8 1.6 NW 1.6 0.0 0.0
20:49 17.4 10.8 65 1021.6 2.2 NW 2.2 0.0 0.0
20:50 17.4 10.8 65 1021.7 1.6 NW 2.2 0.0 0.0
20:52 17.3 10.7 65 1021.7 1.6 NW 2.2 0.0 0.0
20:53 17.3 10.7 65 1021.6 2.2 NW 2.2 0.0 0.0
20:54 17.2 10.6 65 1021.7 2.2 NW 2.2 0.0 0.0
20:55 17.2 10.6 65 1021.5 2.2 NW 2.2 0.0 0.0
20:56 17.2 10.6 65 1021.8 2.2 NW 2.2 0.0 0.0
20:57 17.1 10.7 66 1021.7 1.6 NW 2.2 0.0 0.0
20:58 17.0 10.6 66 1021.6 1.6 NW 2.2 0.0 0.0
20:59 17.0 10.6 66 1021.7 1.6 NW 2.2 0.0 0.0
21:01 17.0 10.6 66 1021.7 1.6 NW 2.2 0.0 0.0
21:02 16.9 10.5 66 1021.8 1.6 NW 2.2 0.0 0.0
21:03 16.9 10.5 66 1021.7 1.6 NW 2.2 0.0 0.0
21:05 16.8 10.4 66 1021.6 1.6 NW 2.2 0.0 0.0
21:06 16.8 10.4 66 1021.8 1.6 NW 2.2 0.0 0.0
21:08 16.7 10.3 66 1021.7 0.7 NW 2.2 0.0 0.0
21:09 16.7 10.3 66 1021.8 1.6 NW 2.2 0.0 0.0
21:11 16.6 10.2 66 1021.7 0.7 NW 2.2 0.0 0.0
21:12 16.6 10.2 66 1021.7 0.7 NW 2.2 0.0 0.0
21:14 16.5 10.1 66 1021.7 1.6 NW 2.2 0.0 0.0
21:15 16.5 10.1 66 1021.8 1.6 NW 2.2 0.0 0.0
21:16 16.4 10.0 66 1021.7 1.6 NW 2.2 0.0 0.0
21:18 16.4 10.0 66 1021.7 2.2 NW 2.2 0.0 0.0
21:19 16.3 9.9 66 1021.8 2.2 NW 2.2 0.0 0.0
21:21 16.3 9.9 66 1021.8 1.6 NW 2.2 0.0 0.0
21:22 16.3 9.9 66 1021.9 2.2 NW 2.2 0.0 0.0
21:23 16.2 9.8 66 1021.7 1.6 NW 2.2 0.0 0.0
21:24 16.2 9.8 66 1021.8 1.6 NW 2.2 0.0 0.0
21:26 16.2 9.8 66 1021.8 1.6 NW 2.2 0.0 0.0
21:27 16.1 9.8 66 1021.8 2.2 NW 2.2 0.0 0.0
21:28 16.1 9.8 66 1021.8 3.8 NW 3.8 0.0 0.0
21:29 16.1 9.8 66 1021.7 3.8 NW 3.8 0.0 0.0
21:31 15.9 9.6 66 1021.7 3.1 NW 3.8 0.0 0.0
21:32 15.9 9.6 66 1021.8 2.2 NW 3.8 0.0 0.0
21:33 15.9 9.6 66 1021.8 1.6 NW 3.8 0.0 0.0
21:35 15.8 9.7 67 1021.8 0.7 NW 3.8 0.0 0.0
21:36 15.7 9.6 67 1021.7 1.6 NW 3.8 0.0 0.0
21:37 15.7 9.6 67 1021.7 0.7 NW 3.8 0.0 0.0
21:39 15.7 9.6 67 1021.7 1.6 NW 3.8 0.0 0.0
21:40 15.7 9.6 67 1021.7 1.6 NW 3.1 0.0 0.0
21:41 15.6 9.5 67 1021.9 2.2 NW 3.1 0.0 0.0
21:43 15.6 9.5 67 1021.9 2.2 NW 2.2 0.0 0.0
21:44 15.5 9.4 67 1021.7 1.6 NW 2.2 0.0 0.0
21:46 15.5 9.6 68 1021.7 1.6 NW 2.2 0.0 0.0
21:48 15.5 9.6 68 1021.7 2.2 NW 2.2 0.0 0.0
21:50 15.4 9.5 68 1021.8 2.2 NW 3.1 0.0 0.0
21:52 15.4 9.3 67 1021.8 2.2 NW 3.1 0.0 0.0
21:53 15.3 9.4 68 1021.7 1.6 NW 3.1 0.0 0.0
21:54 15.3 9.4 68 1021.8 1.6 NW 3.1 0.0 0.0
21:55 15.3 9.4 68 1021.8 1.6 NW 3.1 0.0 0.0
21:57 15.2 9.3 68 1022.1 1.6 NW 3.1 0.0 0.0
21:58 15.2 9.3 68 1021.9 2.2 NW 3.1 0.0 0.0
21:59 15.2 9.3 68 1021.8 3.1 NW 3.1 0.0 0.0
22:00 15.2 9.3 68 1021.8 3.1 NW 3.1 0.0 0.0
22:01 15.2 9.3 68 1022.0 3.1 NW 3.1 0.0 0.0
22:02 15.2 9.3 68 1021.9 3.1 NW 3.1 0.0 0.0
22:03 15.2 9.3 68 1021.8 3.1 NW 3.1 0.0 0.0
22:04 15.2 9.3 68 1021.8 3.1 NW 3.1 0.0 0.0
22:05 15.1 9.2 68 1021.9 2.2 NW 3.1 0.0 0.0
22:07 15.0 9.1 68 1021.8 2.2 NW 3.1 0.0 0.0
22:08 15.0 9.1 68 1021.9 2.2 NW 3.1 0.0 0.0
22:09 15.0 9.1 68 1021.8 1.6 NW 3.1 0.0 0.0
22:10 15.0 9.1 68 1021.9 3.1 NW 3.1 0.0 0.0
22:11 15.0 9.1 68 1022.0 3.1 NW 3.8 0.0 0.0
22:13 15.0 9.1 68 1021.9 2.2 NW 3.8 0.0 0.0
22:15 15.0 9.1 68 1022.0 2.2 NW 3.8 0.0 0.0
22:16 15.0 9.1 68 1021.9 2.2 NW 3.8 0.0 0.0
22:18 15.0 9.1 68 1021.9 3.8 NW 3.8 0.0 0.0
22:19 15.0 9.1 68 1021.8 3.1 NW 3.8 0.0 0.0
22:20 15.0 9.1 68 1021.9 1.6 NW 3.8 0.0 0.0
22:21 15.0 9.1 68 1021.8 2.2 NW 3.8 0.0 0.0
22:22 15.0 9.1 68 1021.7 2.2 NW 3.8 0.0 0.0
22:24 14.9 9.1 68 1021.9 1.6 NW 3.8 0.0 0.0
22:25 14.9 9.1 68 1021.8 2.2 NW 3.8 0.0 0.0
22:26 14.9 9.1 68 1022.0 2.2 NW 3.8 0.0 0.0
22:27 14.9 9.1 68 1021.8 1.6 NW 3.8 0.0 0.0
22:28 14.9 9.1 68 1021.9 2.2 NW 3.1 0.0 0.0
22:29 14.9 9.1 68 1021.8 2.2 NW 3.1 0.0 0.0
22:30 14.9 9.1 68 1021.9 3.1 NW 3.1 0.0 0.0
22:31 14.9 9.3 69 1021.8 2.2 NW 3.1 0.0 0.0
22:33 14.8 9.2 69 1021.8 2.2 NW 3.1 0.0 0.0
22:34 14.8 9.2 69 1021.8 2.2 NW 3.1 0.0 0.0
22:35 14.8 9.2 69 1021.9 2.2 NW 3.1 0.0 0.0
22:36 14.9 9.3 69 1021.9 1.6 NW 3.1 0.0 0.0
22:37 14.8 9.2 69 1021.8 2.2 NW 3.1 0.0 0.0
22:38 14.8 9.2 69 1021.8 1.6 NW 3.1 0.0 0.0
22:39 14.8 9.2 69 1021.8 2.2 NW 3.1 0.0 0.0
22:41 14.8 9.2 69 1021.8 0.7 NW 2.2 0.0 0.0
22:42 14.8 9.2 69 1021.8 3.1 NW 3.1 0.0 0.0
22:43 14.8 9.2 69 1021.8 3.1 NW 3.1 0.0 0.0
22:44 14.8 9.2 69 1021.7 1.6 NW 3.1 0.0 0.0
22:45 14.8 9.2 69 1021.8 1.6 NW 3.1 0.0 0.0
22:46 14.8 9.2 69 1021.8 1.6 NW 3.1 0.0 0.0
22:47 14.8 9.2 69 1021.9 0.7 NW 3.1 0.0 0.0
22:49 14.8 9.2 69 1021.8 1.6 NW 3.1 0.0 0.0
22:50 14.8 9.4 70 1021.9 1.6 NW 3.1 0.0 0.0
22:51 14.8 9.4 70 1021.7 2.2 NW 3.1 0.0 0.0
22:52 14.8 9.4 70 1021.8 2.2 NW 3.1 0.0 0.0
22:53 14.8 9.4 70 1021.8 0.7 NW 3.1 0.0 0.0
22:54 14.8 9.4 70 1021.6 1.6 NW 3.1 0.0 0.0
22:55 14.8 9.4 70 1021.7 1.6 NW 3.1 0.0 0.0
22:57 14.8 9.4 70 1021.8 1.6 NW 3.1 0.0 0.0
22:58 14.8 9.4 70 1021.8 2.2 NW 3.1 0.0 0.0
22:59 14.7 9.3 70 1021.8 2.2 NW 3.1 0.0 0.0
23:02 14.7 9.3 70 1021.8 2.2 NW 2.2 0.0 0.0
23:05 14.7 9.3 70 1021.8 2.2 NW 2.2 0.0 0.0
23:07 14.7 9.3 70 1021.8 1.6 NW 2.2 0.0 0.0
23:10 14.7 9.5 71 1021.8 2.2 NW 2.2 0.0 0.0
23:12 14.6 9.4 71 1021.8 3.8 NW 3.8 0.0 0.0
23:15 14.6 9.4 71 1021.9 2.2 NW 3.8 0.0 0.0
23:17 14.6 9.4 71 1021.8 2.2 NW 3.8 0.0 0.0
23:20 14.6 9.4 71 1021.7 2.2 NW 3.8 0.0 0.0
23:22 14.6 9.4 71 1021.8 1.6 NW 3.8 0.0 0.0
23:24 14.6 9.4 71 1021.7 2.2 NW 3.1 0.0 0.0
23:26 14.5 9.3 71 1021.8 2.2 NW 3.1 0.0 0.0
23:29 14.5 9.3 71 1021.6 2.2 NW 3.1 0.0 0.0
23:31 14.5 9.3 71 1021.6 3.1 NW 3.1 0.0 0.0
23:33 14.4 9.2 71 1021.6 2.2 NW 3.1 0.0 0.0
23:36 14.4 9.2 71 1021.8 2.2 NW 3.1 0.0 0.0
23:39 14.4 9.2 71 1021.7 1.6 NW 3.1 0.0 0.0
23:40 14.3 9.1 71 1021.8 2.2 NW 3.1 0.0 0.0
23:42 14.3 9.1 71 1021.5 2.2 NW 3.1 0.0 0.0
23:44 14.3 9.1 71 1021.6 3.1 NW 3.1 0.0 0.0
23:45 14.3 9.1 71 1021.6 2.2 NW 3.1 0.0 0.0
23:47 14.2 9.0 71 1021.7 2.2 NW 3.1 0.0 0.0
23:48 14.2 9.0 71 1021.7 1.6 NW 3.1 0.0 0.0
23:50 14.2 9.2 72 1021.6 1.6 NW 3.1 0.0 0.0
23:51 14.2 9.2 72 1021.5 2.2 NW 3.1 0.0 0.0
23:52 14.2 9.2 72 1021.6 3.1 NW 3.1 0.0 0.0
23:53 14.2 9.2 72 1021.6 3.1 NW 3.1 0.0 0.0
23:54 14.2 9.2 72 1021.6 2.2 NW 3.1 0.0 0.0
23:56 14.2 9.2 72 1021.5 2.2 NW 3.1 0.0 0.0
23:57 14.1 9.1 72 1021.5 2.2 NW 3.1 0.0 0.0
23:58 14.1 9.1 72 1021.5 3.1 NW 3.1 0.0 0.0

UK - WEATHER STATION TOPSITES - UK World Weather Websites

This is a private weather station, never base important decisions or events on data from this weather station. Although every effort has been made to make the data as accurate as possible it does not meet MetOffice standards. It is proved as a guide of local weather conditions. We accept no liability for any loss which may arise from use of the data.

Copyright © Carnkie Weather 2009 - 2018.